Time,TemperatureF,DewpointF,PressureIn,WindDirection,WindDirectionDegrees,WindSpeedMPH,WindSpeedGustMPH,Humidity,HourlyPrecipIn,Conditions,Clouds,dailyrainin,SoftwareType,DateUTC
2014-01-08 00:00:00,4.4,-6.4,30.01,WSW,256,2.0,13.0,60,0.00,,---,0.00,VWS V14.01,2014-01-08 05:00:00,
2014-01-08 00:01:00,4.3,-6.2,30.01,SW,225,3.0,13.0,61,0.00,,---,0.00,VWS V14.01,2014-01-08 05:01:00,
2014-01-08 00:06:00,4.1,-6.3,30.01,West,259,1.0,5.0,61,0.00,,---,0.00,VWS V14.01,2014-01-08 05:06:00,
2014-01-08 00:11:00,5.1,-7.2,30.02,NNE,18,4.0,8.0,56,0.00,,---,0.00,VWS V14.01,2014-01-08 05:11:00,
2014-01-08 00:16:00,5.1,-6.4,30.02,WSW,239,1.0,8.0,58,0.00,,---,0.00,VWS V14.01,2014-01-08 05:16:00,
2014-01-08 00:17:00,5.1,-6.4,30.03,West,260,10.0,10.0,58,0.00,,---,0.00,VWS V14.01,2014-01-08 05:17:00,
2014-01-08 00:21:00,6.0,-6.7,30.03,NE,43,7.0,15.0,55,0.00,,---,0.00,VWS V14.01,2014-01-08 05:21:00,
2014-01-08 00:22:00,6.3,-7.2,30.02,ESE,123,7.0,19.0,53,0.00,,---,0.00,VWS V14.01,2014-01-08 05:22:00,
2014-01-08 00:26:00,6.9,-7.0,30.03,East,89,1.0,19.0,52,0.00,,---,0.00,VWS V14.01,2014-01-08 05:26:00,
2014-01-08 00:27:00,6.9,-7.0,30.03,NE,41,2.0,19.0,52,0.00,,---,0.00,VWS V14.01,2014-01-08 05:27:00,
2014-01-08 00:28:00,7.0,-6.9,30.03,NE,46,2.0,19.0,52,0.00,,---,0.00,VWS V14.01,2014-01-08 05:28:00,
2014-01-08 00:30:00,7.3,-6.6,30.03,South,181,2.0,19.0,52,0.00,,---,0.00,VWS V14.01,2014-01-08 05:30:00,
2014-01-08 00:31:00,7.3,-7.0,30.03,WSW,242,2.0,19.0,51,0.00,,---,0.00,VWS V14.01,2014-01-08 05:31:00,
2014-01-08 00:32:00,7.3,-6.6,30.03,SE,124,3.0,19.0,52,0.00,,---,0.00,VWS V14.01,2014-01-08 05:32:00,
2014-01-08 00:33:00,7.3,-6.6,30.03,South,181,2.0,2.0,52,0.00,,---,0.00,VWS V14.01,2014-01-08 05:33:00,
2014-01-08 00:36:00,7.2,-6.7,30.04,WNW,291,3.0,4.0,52,0.00,,---,0.00,VWS V14.01,2014-01-08 05:36:00,
2014-01-08 00:37:00,7.2,-6.7,30.03,SSW,197,2.0,4.0,52,0.00,,---,0.00,VWS V14.01,2014-01-08 05:37:00,
2014-01-08 00:38:00,7.1,-6.8,30.04,NE,37,9.0,20.0,52,0.00,,---,0.00,VWS V14.01,2014-01-08 05:38:00,
2014-01-08 00:41:00,7.0,-6.5,30.04,WSW,250,3.0,20.0,53,0.00,,---,0.00,VWS V14.01,2014-01-08 05:41:00,
2014-01-08 00:42:00,7.0,-6.5,30.04,ESE,115,0.0,20.0,53,0.00,,---,0.00,VWS V14.01,2014-01-08 05:42:00,
2014-01-08 00:43:00,7.0,-6.5,30.04,WSW,242,2.0,20.0,53,0.00,,---,0.00,VWS V14.01,2014-01-08 05:43:00,
2014-01-08 00:46:00,6.8,-6.3,30.04,WSW,238,3.0,20.0,54,0.00,,---,0.00,VWS V14.01,2014-01-08 05:46:00,
2014-01-08 00:47:00,6.8,-6.3,30.04,WSW,241,2.0,20.0,54,0.00,,---,0.00,VWS V14.01,2014-01-08 05:47:00,
2014-01-08 00:48:00,6.8,-6.7,30.04,NE,41,1.0,20.0,53,0.00,,---,0.00,VWS V14.01,2014-01-08 05:48:00,
2014-01-08 00:49:00,6.8,-6.7,30.04,East,84,1.0,20.0,53,0.00,,---,0.00,VWS V14.01,2014-01-08 05:49:00,
2014-01-08 00:51:00,6.9,-6.6,30.04,ENE,70,2.0,20.0,53,0.00,,---,0.00,VWS V14.01,2014-01-08 05:51:00,
2014-01-08 00:52:00,6.9,-6.6,30.04,ENE,66,1.0,20.0,53,0.00,,---,0.00,VWS V14.01,2014-01-08 05:52:00,
2014-01-08 00:54:00,6.8,-6.3,30.05,WSW,253,1.0,20.0,54,0.00,,---,0.00,VWS V14.01,2014-01-08 05:54:00,
2014-01-08 00:56:00,6.7,-6.4,30.04,WSW,243,2.0,20.0,54,0.00,,---,0.00,VWS V14.01,2014-01-08 05:56:00,
2014-01-08 00:57:00,6.5,-5.8,30.05,WSW,243,1.0,20.0,56,0.00,,---,0.00,VWS V14.01,2014-01-08 05:57:00,
2014-01-08 00:59:00,6.4,-6.3,30.05,NNW,344,3.0,20.0,55,0.00,,---,0.00,VWS V14.01,2014-01-08 05:59:00,
2014-01-08 01:00:00,6.2,-6.1,30.05,North,354,1.0,20.0,56,0.00,,---,0.00,VWS V14.01,2014-01-08 06:00:00,
2014-01-08 01:01:00,6.2,-6.1,30.05,WSW,256,1.0,20.0,56,0.00,,---,0.00,VWS V14.01,2014-01-08 06:01:00,
2014-01-08 01:02:00,6.2,-6.1,30.05,West,270,3.0,20.0,56,0.00,,---,0.00,VWS V14.01,2014-01-08 06:02:00,
2014-01-08 01:03:00,6.2,-6.1,30.05,WNW,300,2.0,20.0,56,0.00,,---,0.00,VWS V14.01,2014-01-08 06:03:00,
2014-01-08 01:04:00,6.2,-6.1,30.05,West,267,3.0,3.0,56,0.00,,---,0.00,VWS V14.01,2014-01-08 06:04:00,
2014-01-08 01:06:00,6.0,-5.6,30.06,SE,143,2.0,6.0,58,0.00,,---,0.00,VWS V14.01,2014-01-08 06:06:00,
2014-01-08 01:07:00,6.0,-5.6,30.06,WSW,249,3.0,6.0,58,0.00,,---,0.00,VWS V14.01,2014-01-08 06:07:00,
2014-01-08 01:08:00,6.0,-5.6,30.06,WSW,245,4.0,6.0,58,0.00,,---,0.00,VWS V14.01,2014-01-08 06:08:00,
2014-01-08 01:09:00,6.1,-5.9,30.06,SW,214,1.0,6.0,57,0.00,,---,0.00,VWS V14.01,2014-01-08 06:09:00,
2014-01-08 01:10:00,6.1,-5.5,30.06,SW,214,0.0,6.0,58,0.00,,---,0.00,VWS V14.01,2014-01-08 06:10:00,
2014-01-08 01:11:00,6.1,-5.5,30.06,SSE,152,0.0,6.0,58,0.00,,---,0.00,VWS V14.01,2014-01-08 06:11:00,
2014-01-08 01:13:00,6.2,-5.8,30.06,West,260,7.0,8.0,57,0.00,,---,0.00,VWS V14.01,2014-01-08 06:13:00,
2014-01-08 01:14:00,6.4,-5.6,30.06,ENE,76,1.0,13.0,57,0.00,,---,0.00,VWS V14.01,2014-01-08 06:14:00,
2014-01-08 01:15:00,6.5,-5.8,30.06,WSW,256,3.0,13.0,56,0.00,,---,0.00,VWS V14.01,2014-01-08 06:15:00,
2014-01-08 01:16:00,6.6,-5.8,30.06,North,355,0.0,13.0,56,0.00,,---,0.00,VWS V14.01,2014-01-08 06:16:00,
2014-01-08 01:18:00,6.6,-5.4,30.06,SW,226,2.0,13.0,57,0.00,,---,0.00,VWS V14.01,2014-01-08 06:18:00,
2014-01-08 01:19:00,6.6,-5.8,30.07,WSW,246,3.0,13.0,56,0.00,,---,0.00,VWS V14.01,2014-01-08 06:19:00,
2014-01-08 01:20:00,6.7,-5.7,30.07,SW,236,4.0,13.0,56,0.00,,---,0.00,VWS V14.01,2014-01-08 06:20:00,
2014-01-08 01:21:00,6.7,-5.7,30.06,NW,320,1.0,13.0,56,0.00,,---,0.00,VWS V14.01,2014-01-08 06:21:00,
2014-01-08 01:23:00,6.7,-5.7,30.07,West,262,1.0,13.0,56,0.00,,---,0.00,VWS V14.01,2014-01-08 06:23:00,
2014-01-08 01:24:00,6.6,-5.8,30.07,SW,224,2.0,13.0,56,0.00,,---,0.00,VWS V14.01,2014-01-08 06:24:00,
2014-01-08 01:25:00,6.6,-5.4,30.07,SW,229,6.0,13.0,57,0.00,,---,0.00,VWS V14.01,2014-01-08 06:25:00,
2014-01-08 01:26:00,6.6,-5.8,30.07,ESE,114,3.0,13.0,56,0.00,,---,0.00,VWS V14.01,2014-01-08 06:26:00,
2014-01-08 01:28:00,6.7,-5.7,30.07,ESE,121,4.0,13.0,56,0.00,,---,0.00,VWS V14.01,2014-01-08 06:28:00,
2014-01-08 01:29:00,6.7,-5.7,30.07,SE,128,3.0,13.0,56,0.00,,---,0.00,VWS V14.01,2014-01-08 06:29:00,
2014-01-08 01:30:00,6.8,-5.6,30.07,SE,128,0.0,13.0,56,0.00,,---,0.00,VWS V14.01,2014-01-08 06:30:00,
2014-01-08 01:32:00,6.9,-5.5,30.08,WSW,245,2.0,13.0,56,0.00,,---,0.00,VWS V14.01,2014-01-08 06:32:00,
2014-01-08 01:33:00,6.8,-5.2,30.08,SW,236,1.0,2.0,57,0.00,,---,0.00,VWS V14.01,2014-01-08 06:33:00,
2014-01-08 01:34:00,6.8,-5.2,30.08,WSW,241,0.0,2.0,57,0.00,,---,0.00,VWS V14.01,2014-01-08 06:34:00,
2014-01-08 01:35:00,6.7,-5.3,30.08,WSW,240,1.0,2.0,57,0.00,,---,0.00,VWS V14.01,2014-01-08 06:35:00,
2014-01-08 01:36:00,6.6,-5.4,30.08,West,266,3.0,6.0,57,0.00,,---,0.00,VWS V14.01,2014-01-08 06:36:00,
2014-01-08 01:37:00,6.6,-5.4,30.08,West,266,2.0,6.0,57,0.00,,---,0.00,VWS V14.01,2014-01-08 06:37:00,
2014-01-08 01:38:00,6.5,-5.1,30.08,SW,229,9.0,9.0,58,0.00,,---,0.00,VWS V14.01,2014-01-08 06:38:00,
2014-01-08 01:40:00,6.5,-4.8,30.08,WSW,238,3.0,9.0,59,0.00,,---,0.00,VWS V14.01,2014-01-08 06:40:00,
2014-01-08 01:42:00,6.6,-5.0,30.08,ESE,123,3.0,9.0,58,0.00,,---,0.00,VWS V14.01,2014-01-08 06:42:00,
2014-01-08 01:44:00,6.7,-4.9,30.08,SE,129,8.0,11.0,58,0.00,,---,0.00,VWS V14.01,2014-01-08 06:44:00,
2014-01-08 01:45:00,6.8,-4.8,30.09,WNW,284,2.0,11.0,58,0.00,,---,0.00,VWS V14.01,2014-01-08 06:45:00,
2014-01-08 01:46:00,6.9,-4.7,30.09,East,91,0.0,11.0,58,0.00,,---,0.00,VWS V14.01,2014-01-08 06:46:00,
2014-01-08 01:47:00,6.9,-4.7,30.08,NE,37,0.0,11.0,58,0.00,,---,0.00,VWS V14.01,2014-01-08 06:47:00,
2014-01-08 01:49:00,6.7,-4.6,30.09,WSW,248,2.0,11.0,59,0.00,,---,0.00,VWS V14.01,2014-01-08 06:49:00,
2014-01-08 01:50:00,6.6,-4.7,30.09,WSW,256,2.0,11.0,59,0.00,,---,0.00,VWS V14.01,2014-01-08 06:50:00,
2014-01-08 01:51:00,6.5,-4.4,30.09,WSW,258,2.0,11.0,60,0.00,,---,0.00,VWS V14.01,2014-01-08 06:51:00,
2014-01-08 01:52:00,6.5,-4.8,30.09,WSW,258,0.0,11.0,59,0.00,,---,0.00,VWS V14.01,2014-01-08 06:52:00,
2014-01-08 01:53:00,6.5,-4.8,30.10,East,95,2.0,11.0,59,0.00,,---,0.00,VWS V14.01,2014-01-08 06:53:00,
2014-01-08 01:54:00,6.5,-4.8,30.09,WNW,288,3.0,11.0,59,0.00,,---,0.00,VWS V14.01,2014-01-08 06:54:00,
2014-01-08 01:55:00,6.5,-4.8,30.09,West,268,1.0,11.0,59,0.00,,---,0.00,VWS V14.01,2014-01-08 06:55:00,
2014-01-08 01:56:00,6.6,-4.7,30.09,WSW,245,1.0,11.0,59,0.00,,---,0.00,VWS V14.01,2014-01-08 06:56:00,
2014-01-08 01:57:00,6.6,-4.7,30.09,ESE,108,3.0,11.0,59,0.00,,---,0.00,VWS V14.01,2014-01-08 06:57:00,
2014-01-08 01:58:00,6.6,-4.7,30.10,ESE,111,0.0,11.0,59,0.00,,---,0.00,VWS V14.01,2014-01-08 06:58:00,
2014-01-08 01:59:00,6.6,-4.7,30.10,West,267,2.0,11.0,59,0.00,,---,0.00,VWS V14.01,2014-01-08 06:59:00,
2014-01-08 02:00:00,6.6,-4.7,30.10,West,267,0.0,11.0,59,0.00,,---,0.00,VWS V14.01,2014-01-08 07:00:00,
2014-01-08 02:02:00,6.4,-4.2,30.10,SW,226,1.0,11.0,61,0.00,,---,0.00,VWS V14.01,2014-01-08 07:02:00,
2014-01-08 02:03:00,6.3,-4.3,30.10,ESE,108,2.0,11.0,61,0.00,,---,0.00,VWS V14.01,2014-01-08 07:03:00,
2014-01-08 02:05:00,6.2,-4.4,30.10,West,262,1.0,2.0,61,0.00,,---,0.00,VWS V14.01,2014-01-08 07:05:00,
2014-01-08 02:07:00,5.9,-4.6,30.10,WNW,291,3.0,6.0,61,0.00,,---,0.00,VWS V14.01,2014-01-08 07:07:00,
2014-01-08 02:08:00,5.9,-4.6,30.10,ENE,74,11.0,11.0,61,0.00,,---,0.00,VWS V14.01,2014-01-08 07:08:00,
2014-01-08 02:10:00,6.1,-4.4,30.10,ESE,108,11.0,15.0,61,0.00,,---,0.00,VWS V14.01,2014-01-08 07:10:00,
2014-01-08 02:12:00,6.6,-4.3,30.11,WSW,250,5.0,15.0,60,0.00,,---,0.00,VWS V14.01,2014-01-08 07:12:00,
2014-01-08 02:13:00,6.7,-4.2,30.10,WSW,239,4.0,15.0,60,0.00,,---,0.00,VWS V14.01,2014-01-08 07:13:00,
2014-01-08 02:15:00,7.0,-4.3,30.11,WSW,239,3.0,15.0,59,0.00,,---,0.00,VWS V14.01,2014-01-08 07:15:00,
2014-01-08 02:17:00,7.2,-4.1,30.11,North,11,7.0,15.0,59,0.00,,---,0.00,VWS V14.01,2014-01-08 07:17:00,
2014-01-08 02:18:00,7.3,-4.0,30.11,ESE,115,7.0,16.0,59,0.00,,---,0.00,VWS V14.01,2014-01-08 07:18:00,
2014-01-08 02:20:00,7.4,-4.3,30.11,ESE,114,3.0,16.0,58,0.00,,---,0.00,VWS V14.01,2014-01-08 07:20:00,
2014-01-08 02:22:00,7.5,-4.2,30.11,WNW,287,4.0,16.0,58,0.00,,---,0.00,VWS V14.01,2014-01-08 07:22:00,
2014-01-08 02:23:00,7.4,-4.3,30.11,West,266,2.0,16.0,58,0.00,,---,0.00,VWS V14.01,2014-01-08 07:23:00,
2014-01-08 02:24:00,7.3,-4.0,30.11,ESE,121,5.0,16.0,59,0.00,,---,0.00,VWS V14.01,2014-01-08 07:24:00,
2014-01-08 02:25:00,7.0,-3.9,30.11,West,259,7.0,16.0,60,0.00,,---,0.00,VWS V14.01,2014-01-08 07:25:00,
2014-01-08 02:28:00,7.2,-4.1,30.12,SE,136,4.0,16.0,59,0.00,,---,0.00,VWS V14.01,2014-01-08 07:28:00,
2014-01-08 02:29:00,7.3,-4.0,30.12,ESE,105,4.0,16.0,59,0.00,,---,0.00,VWS V14.01,2014-01-08 07:29:00,
2014-01-08 02:30:00,7.4,-3.9,30.12,SE,125,1.0,16.0,59,0.00,,---,0.00,VWS V14.01,2014-01-08 07:30:00,
2014-01-08 02:33:00,7.4,-3.9,30.11,WNW,297,3.0,3.0,59,0.00,,---,0.00,VWS V14.01,2014-01-08 07:33:00,
2014-01-08 02:34:00,7.4,-3.9,30.11,WNW,297,1.0,3.0,59,0.00,,---,0.00,VWS V14.01,2014-01-08 07:34:00,
2014-01-08 02:35:00,7.2,-3.8,30.11,NE,53,2.0,4.0,60,0.00,,---,0.00,VWS V14.01,2014-01-08 07:35:00,
2014-01-08 02:36:00,7.2,-3.8,30.11,NE,53,1.0,4.0,60,0.00,,---,0.00,VWS V14.01,2014-01-08 07:36:00,
2014-01-08 02:38:00,6.9,-4.0,30.11,ENE,63,3.0,4.0,60,0.00,,---,0.00,VWS V14.01,2014-01-08 07:38:00,
2014-01-08 02:39:00,6.9,-4.0,30.11,ENE,77,0.0,4.0,60,0.00,,---,0.00,VWS V14.01,2014-01-08 07:39:00,
2014-01-08 02:40:00,6.7,-4.2,30.12,WSW,255,2.0,8.0,60,0.00,,---,0.00,VWS V14.01,2014-01-08 07:40:00,
2014-01-08 02:41:00,6.7,-4.2,30.12,ESE,118,2.0,8.0,60,0.00,,---,0.00,VWS V14.01,2014-01-08 07:41:00,
2014-01-08 02:43:00,7.0,-3.9,30.12,NNE,27,1.0,8.0,60,0.00,,---,0.00,VWS V14.01,2014-01-08 07:43:00,
2014-01-08 02:44:00,7.1,-3.8,30.12,SSE,156,3.0,8.0,60,0.00,,---,0.00,VWS V14.01,2014-01-08 07:44:00,
2014-01-08 02:45:00,7.2,-4.1,30.12,WSW,245,1.0,8.0,59,0.00,,---,0.00,VWS V14.01,2014-01-08 07:45:00,
2014-01-08 02:46:00,7.3,-4.0,30.12,West,278,1.0,8.0,59,0.00,,---,0.00,VWS V14.01,2014-01-08 07:46:00,
2014-01-08 02:48:00,7.4,-3.9,30.12,SW,232,0.0,8.0,59,0.00,,---,0.00,VWS V14.01,2014-01-08 07:48:00,
2014-01-08 02:49:00,7.4,-3.9,30.12,West,276,4.0,8.0,59,0.00,,---,0.00,VWS V14.01,2014-01-08 07:49:00,
2014-01-08 02:50:00,7.4,-3.9,30.12,West,276,4.0,8.0,59,0.00,,---,0.00,VWS V14.01,2014-01-08 07:50:00,
2014-01-08 02:51:00,7.3,-4.0,30.12,ESE,115,4.0,8.0,59,0.00,,---,0.00,VWS V14.01,2014-01-08 07:51:00,
2014-01-08 02:53:00,7.3,-4.0,30.12,ESE,111,1.0,8.0,59,0.00,,---,0.00,VWS V14.01,2014-01-08 07:53:00,
2014-01-08 02:55:00,7.3,-4.0,30.12,SW,232,1.0,8.0,59,0.00,,---,0.00,VWS V14.01,2014-01-08 07:55:00,
2014-01-08 02:56:00,7.3,-4.0,30.12,SSE,162,1.0,8.0,59,0.00,,---,0.00,VWS V14.01,2014-01-08 07:56:00,
2014-01-08 02:58:00,7.4,-3.9,30.12,WNW,285,3.0,8.0,59,0.00,,---,0.00,VWS V14.01,2014-01-08 07:58:00,
2014-01-08 03:00:00,7.4,-3.6,30.12,WSW,240,3.0,8.0,60,0.00,,---,0.00,VWS V14.01,2014-01-08 08:00:00,
2014-01-08 03:01:00,7.4,-3.6,30.12,WSW,253,3.0,8.0,60,0.00,,---,0.00,VWS V14.01,2014-01-08 08:01:00,
2014-01-08 03:03:00,7.3,-4.0,30.12,East,83,1.0,2.0,59,0.00,,---,0.00,VWS V14.01,2014-01-08 08:03:00,
2014-01-08 03:05:00,7.3,-4.0,30.12,NE,46,0.0,2.0,59,0.00,,---,0.00,VWS V14.01,2014-01-08 08:05:00,
2014-01-08 03:06:00,7.3,-4.0,30.12,NE,46,0.0,2.0,59,0.00,,---,0.00,VWS V14.01,2014-01-08 08:06:00,
2014-01-08 03:07:00,7.3,-3.7,30.13,East,92,1.0,2.0,60,0.00,,---,0.00,VWS V14.01,2014-01-08 08:07:00,
2014-01-08 03:08:00,7.3,-4.0,30.13,East,89,1.0,2.0,59,0.00,,---,0.00,VWS V14.01,2014-01-08 08:08:00,
2014-01-08 03:11:00,7.2,-3.8,30.13,ESE,121,1.0,2.0,60,0.00,,---,0.00,VWS V14.01,2014-01-08 08:11:00,
2014-01-08 03:12:00,6.9,-3.7,30.13,ESE,122,0.0,2.0,61,0.00,,---,0.00,VWS V14.01,2014-01-08 08:12:00,
2014-01-08 03:13:00,6.7,-3.5,30.13,WSW,243,4.0,4.0,62,0.00,,---,0.00,VWS V14.01,2014-01-08 08:13:00,
2014-01-08 03:16:00,6.2,-3.7,30.13,SE,134,0.0,4.0,63,0.00,,---,0.00,VWS V14.01,2014-01-08 08:16:00,
2014-01-08 03:17:00,6.1,-3.8,30.13,West,264,3.0,5.0,63,0.00,,---,0.00,VWS V14.01,2014-01-08 08:17:00,
2014-01-08 03:18:00,5.9,-4.0,30.13,ESE,116,3.0,5.0,63,0.00,,---,0.00,VWS V14.01,2014-01-08 08:18:00,
2014-01-08 03:21:00,5.9,-3.6,30.13,ESE,123,0.0,6.0,64,0.00,,---,0.00,VWS V14.01,2014-01-08 08:21:00,
2014-01-08 03:22:00,6.0,-3.9,30.13,West,264,0.0,6.0,63,0.00,,---,0.00,VWS V14.01,2014-01-08 08:22:00,
2014-01-08 03:23:00,6.0,-3.5,30.13,West,264,0.0,6.0,64,0.00,,---,0.00,VWS V14.01,2014-01-08 08:23:00,
2014-01-08 03:24:00,6.0,-3.5,30.12,WSW,258,2.0,6.0,64,0.00,,---,0.00,VWS V14.01,2014-01-08 08:24:00,
2014-01-08 03:26:00,5.8,-3.7,30.13,South,174,1.0,6.0,64,0.00,,---,0.00,VWS V14.01,2014-01-08 08:26:00,
2014-01-08 03:27:00,5.8,-3.7,30.13,WSW,239,2.0,6.0,64,0.00,,---,0.00,VWS V14.01,2014-01-08 08:27:00,
2014-01-08 03:28:00,5.8,-3.7,30.13,West,267,0.0,6.0,64,0.00,,---,0.00,VWS V14.01,2014-01-08 08:28:00,
2014-01-08 03:29:00,6.0,-3.5,30.13,ESE,117,2.0,7.0,64,0.00,,---,0.00,VWS V14.01,2014-01-08 08:29:00,
2014-01-08 03:30:00,7.1,-3.5,30.14,WSW,248,2.0,11.0,61,0.00,,---,0.00,VWS V14.01,2014-01-08 08:30:00,
2014-01-08 03:31:00,6.7,-3.5,30.14,ENE,58,1.0,11.0,62,0.00,,---,0.00,VWS V14.01,2014-01-08 08:31:00,
2014-01-08 03:32:00,7.0,-3.6,30.14,ENE,78,1.0,11.0,61,0.00,,---,0.00,VWS V14.01,2014-01-08 08:32:00,
2014-01-08 03:33:00,7.1,-3.5,30.14,SSE,150,1.0,11.0,61,0.00,,---,0.00,VWS V14.01,2014-01-08 08:33:00,
2014-01-08 03:34:00,7.4,-3.2,30.14,SSE,167,2.0,7.0,61,0.00,,---,0.00,VWS V14.01,2014-01-08 08:34:00,
2014-01-08 03:36:00,7.7,-3.3,30.14,West,280,0.0,7.0,60,0.00,,---,0.00,VWS V14.01,2014-01-08 08:36:00,
2014-01-08 03:37:00,7.8,-3.2,30.14,East,91,6.0,7.0,60,0.00,,---,0.00,VWS V14.01,2014-01-08 08:37:00,
2014-01-08 03:38:00,7.8,-3.2,30.14,East,96,3.0,7.0,60,0.00,,---,0.00,VWS V14.01,2014-01-08 08:38:00,
2014-01-08 03:39:00,7.9,-3.4,30.14,ESE,107,6.0,7.0,59,0.00,,---,0.00,VWS V14.01,2014-01-08 08:39:00,
2014-01-08 03:42:00,7.9,-3.4,30.14,SW,235,2.0,7.0,59,0.00,,---,0.00,VWS V14.01,2014-01-08 08:42:00,
2014-01-08 03:43:00,7.9,-3.1,30.15,WSW,249,3.0,7.0,60,0.00,,---,0.00,VWS V14.01,2014-01-08 08:43:00,
2014-01-08 03:44:00,7.6,-3.0,30.14,WNW,283,4.0,7.0,61,0.00,,---,0.00,VWS V14.01,2014-01-08 08:44:00,
2014-01-08 03:47:00,7.6,-3.4,30.14,NE,47,1.0,7.0,60,0.00,,---,0.00,VWS V14.01,2014-01-08 08:47:00,
2014-01-08 03:48:00,7.5,-3.1,30.14,NE,47,1.0,7.0,61,0.00,,---,0.00,VWS V14.01,2014-01-08 08:48:00,
2014-01-08 03:49:00,7.4,-3.2,30.15,East,92,7.0,7.0,61,0.00,,---,0.00,VWS V14.01,2014-01-08 08:49:00,
2014-01-08 03:53:00,7.6,-3.0,30.15,ESE,113,2.0,14.0,61,0.00,,---,0.00,VWS V14.01,2014-01-08 08:53:00,
2014-01-08 03:54:00,7.6,-3.4,30.15,East,82,2.0,14.0,60,0.00,,---,0.00,VWS V14.01,2014-01-08 08:54:00,
2014-01-08 03:58:00,7.6,-3.0,30.15,SE,131,3.0,14.0,61,0.00,,---,0.00,VWS V14.01,2014-01-08 08:58:00,
2014-01-08 03:59:00,7.5,-2.8,30.15,SSE,165,1.0,14.0,62,0.00,,---,0.00,VWS V14.01,2014-01-08 08:59:00,
2014-01-08 04:00:00,7.6,-3.0,30.15,NNW,338,2.0,14.0,61,0.00,,---,0.00,VWS V14.01,2014-01-08 09:00:00,
2014-01-08 04:03:00,7.6,-3.0,30.15,North,5,2.0,14.0,61,0.00,,---,0.00,VWS V14.01,2014-01-08 09:03:00,
2014-01-08 04:04:00,7.7,-2.9,30.15,West,268,4.0,4.0,61,0.00,,---,0.00,VWS V14.01,2014-01-08 09:04:00,
2014-01-08 04:08:00,8.0,-3.0,30.15,ENE,66,3.0,4.0,60,0.00,,---,0.00,VWS V14.01,2014-01-08 09:08:00,
2014-01-08 04:09:00,8.1,-2.9,30.15,ESE,108,1.0,8.0,60,0.00,,---,0.00,VWS V14.01,2014-01-08 09:09:00,
2014-01-08 04:10:00,8.1,-2.9,30.15,SW,229,1.0,8.0,60,0.00,,---,0.00,VWS V14.01,2014-01-08 09:10:00,
2014-01-08 04:13:00,8.2,-2.8,30.15,NNW,346,0.0,8.0,60,0.00,,---,0.00,VWS V14.01,2014-01-08 09:13:00,
2014-01-08 04:14:00,8.2,-2.8,30.15,ESE,120,6.0,8.0,60,0.00,,---,0.00,VWS V14.01,2014-01-08 09:14:00,
2014-01-08 04:15:00,8.1,-2.9,30.16,ENE,57,3.0,8.0,60,0.00,,---,0.00,VWS V14.01,2014-01-08 09:15:00,
2014-01-08 04:18:00,8.1,-2.9,30.15,East,79,5.0,11.0,60,0.00,,---,0.00,VWS V14.01,2014-01-08 09:18:00,
2014-01-08 04:19:00,8.2,-2.8,30.15,ESE,119,7.0,11.0,60,0.00,,---,0.00,VWS V14.01,2014-01-08 09:19:00,
2014-01-08 04:20:00,8.2,-2.8,30.15,East,101,8.0,17.0,60,0.00,,---,0.00,VWS V14.01,2014-01-08 09:20:00,
2014-01-08 04:23:00,8.3,-2.7,30.15,ENE,66,1.0,17.0,60,0.00,,---,0.00,VWS V14.01,2014-01-08 09:23:00,
2014-01-08 04:24:00,8.4,-2.6,30.15,ENE,67,1.0,17.0,60,0.00,,---,0.00,VWS V14.01,2014-01-08 09:24:00,
2014-01-08 04:25:00,8.4,-2.6,30.15,ESE,106,3.0,17.0,60,0.00,,---,0.00,VWS V14.01,2014-01-08 09:25:00,
2014-01-08 04:28:00,8.5,-2.5,30.16,ENE,63,6.0,20.0,60,0.00,,---,0.00,VWS V14.01,2014-01-08 09:28:00,
2014-01-08 04:29:00,8.5,-2.5,30.16,ESE,115,5.0,20.0,60,0.00,,---,0.00,VWS V14.01,2014-01-08 09:29:00,
2014-01-08 04:30:00,8.6,-2.8,30.16,East,100,2.0,20.0,59,0.00,,---,0.00,VWS V14.01,2014-01-08 09:30:00,
2014-01-08 04:33:00,8.5,-2.5,30.17,SE,141,2.0,2.0,60,0.00,,---,0.00,VWS V14.01,2014-01-08 09:33:00,
2014-01-08 04:34:00,8.5,-2.5,30.16,SE,128,3.0,5.0,60,0.00,,---,0.00,VWS V14.01,2014-01-08 09:34:00,
2014-01-08 04:35:00,8.5,-2.5,30.16,ESE,113,13.0,13.0,60,0.00,,---,0.00,VWS V14.01,2014-01-08 09:35:00,
2014-01-08 04:36:00,8.5,-2.5,30.17,West,262,2.0,13.0,60,0.00,,---,0.00,VWS V14.01,2014-01-08 09:36:00,
2014-01-08 04:39:00,8.7,-2.7,30.17,ESE,108,1.0,13.0,59,0.00,,---,0.00,VWS V14.01,2014-01-08 09:39:00,
2014-01-08 04:40:00,8.8,-2.6,30.17,ESE,104,0.0,13.0,59,0.00,,---,0.00,VWS V14.01,2014-01-08 09:40:00,
2014-01-08 04:41:00,8.8,-2.6,30.17,ESE,113,0.0,13.0,59,0.00,,---,0.00,VWS V14.01,2014-01-08 09:41:00,
2014-01-08 04:44:00,8.4,-2.3,30.17,ESE,113,2.0,13.0,61,0.00,,---,0.00,VWS V14.01,2014-01-08 09:44:00,
2014-01-08 04:45:00,8.3,-2.4,30.17,WSW,246,6.0,13.0,61,0.00,,---,0.00,VWS V14.01,2014-01-08 09:45:00,
2014-01-08 04:46:00,8.3,-2.7,30.17,South,180,1.0,13.0,60,0.00,,---,0.00,VWS V14.01,2014-01-08 09:46:00,
2014-01-08 04:49:00,8.3,-2.4,30.17,WSW,239,2.0,13.0,61,0.00,,---,0.00,VWS V14.01,2014-01-08 09:49:00,
2014-01-08 04:50:00,8.3,-2.4,30.17,WSW,252,3.0,13.0,61,0.00,,---,0.00,VWS V14.01,2014-01-08 09:50:00,
2014-01-08 04:51:00,8.1,-2.2,30.17,WSW,239,1.0,13.0,62,0.00,,---,0.00,VWS V14.01,2014-01-08 09:51:00,
2014-01-08 04:52:00,8.0,-2.3,30.17,WSW,239,1.0,13.0,62,0.00,,---,0.00,VWS V14.01,2014-01-08 09:52:00,
2014-01-08 04:55:00,7.5,-1.8,30.17,WSW,243,2.0,13.0,65,0.00,,---,0.00,VWS V14.01,2014-01-08 09:55:00,
2014-01-08 04:56:00,7.3,-2.0,30.17,WSW,243,0.0,13.0,65,0.00,,---,0.00,VWS V14.01,2014-01-08 09:56:00,
2014-01-08 04:57:00,7.2,-2.1,30.17,WSW,248,2.0,13.0,65,0.00,,---,0.00,VWS V14.01,2014-01-08 09:57:00,
2014-01-08 05:00:00,7.3,-2.3,30.17,NW,314,4.0,13.0,64,0.00,,---,0.00,VWS V14.01,2014-01-08 10:00:00,
2014-01-08 05:01:00,7.6,-2.0,30.17,West,274,2.0,13.0,64,0.00,,---,0.00,VWS V14.01,2014-01-08 10:01:00,
2014-01-08 05:02:00,7.6,-2.0,30.17,WSW,255,2.0,13.0,64,0.00,,---,0.00,VWS V14.01,2014-01-08 10:02:00,
2014-01-08 05:05:00,7.6,-2.0,30.17,West,274,2.0,3.0,64,0.00,,---,0.00,VWS V14.01,2014-01-08 10:05:00,
2014-01-08 05:06:00,7.6,-2.0,30.17,West,278,1.0,3.0,64,0.00,,---,0.00,VWS V14.01,2014-01-08 10:06:00,
2014-01-08 05:07:00,7.5,-1.8,30.17,West,260,1.0,5.0,65,0.00,,---,0.00,VWS V14.01,2014-01-08 10:07:00,
2014-01-08 05:10:00,7.5,-2.1,30.17,NNE,20,8.0,8.0,64,0.00,,---,0.00,VWS V14.01,2014-01-08 10:10:00,
2014-01-08 05:11:00,7.5,-2.1,30.17,East,95,2.0,9.0,64,0.00,,---,0.00,VWS V14.01,2014-01-08 10:11:00,
2014-01-08 05:13:00,7.7,-1.9,30.17,WSW,249,3.0,9.0,64,0.00,,---,0.00,VWS V14.01,2014-01-08 10:13:00,
2014-01-08 05:15:00,7.8,-1.8,30.17,WSW,248,0.0,9.0,64,0.00,,---,0.00,VWS V14.01,2014-01-08 10:15:00,
2014-01-08 05:16:00,7.7,-1.6,30.17,WSW,252,1.0,9.0,65,0.00,,---,0.00,VWS V14.01,2014-01-08 10:16:00,
2014-01-08 05:17:00,7.7,-1.6,30.17,WSW,252,1.0,9.0,65,0.00,,---,0.00,VWS V14.01,2014-01-08 10:17:00,
2014-01-08 05:19:00,7.4,-1.9,30.17,WSW,252,0.0,9.0,65,0.00,,---,0.00,VWS V14.01,2014-01-08 10:19:00,
2014-01-08 05:20:00,7.4,-1.9,30.17,SSE,150,1.0,9.0,65,0.00,,---,0.00,VWS V14.01,2014-01-08 10:20:00,
2014-01-08 05:21:00,7.4,-1.9,30.17,SSE,149,0.0,9.0,65,0.00,,---,0.00,VWS V14.01,2014-01-08 10:21:00,
2014-01-08 05:22:00,7.3,-1.7,30.17,SW,224,2.0,9.0,66,0.00,,---,0.00,VWS V14.01,2014-01-08 10:22:00,
2014-01-08 05:24:00,7.1,-1.5,30.17,WSW,248,3.0,9.0,67,0.00,,---,0.00,VWS V14.01,2014-01-08 10:24:00,
2014-01-08 05:25:00,7.0,-1.3,30.17,West,265,2.0,9.0,68,0.00,,---,0.00,VWS V14.01,2014-01-08 10:25:00,
2014-01-08 05:26:00,7.0,-1.3,30.17,West,266,1.0,9.0,68,0.00,,---,0.00,VWS V14.01,2014-01-08 10:26:00,
2014-01-08 05:27:00,7.0,-1.3,30.18,West,265,0.0,9.0,68,0.00,,---,0.00,VWS V14.01,2014-01-08 10:27:00,
2014-01-08 05:29:00,6.9,-1.4,30.18,NNW,329,0.0,9.0,68,0.00,,---,0.00,VWS V14.01,2014-01-08 10:29:00,
2014-01-08 05:30:00,6.9,-1.4,30.18,NNW,329,1.0,9.0,68,0.00,,---,0.00,VWS V14.01,2014-01-08 10:30:00,
2014-01-08 05:31:00,6.9,-1.4,30.18,NNW,328,0.0,9.0,68,0.00,,---,0.00,VWS V14.01,2014-01-08 10:31:00,
2014-01-08 05:32:00,6.9,-1.1,30.18,NNW,328,0.0,9.0,69,0.00,,---,0.00,VWS V14.01,2014-01-08 10:32:00,
2014-01-08 05:34:00,6.9,-1.4,30.18,NNW,329,0.0,1.0,68,0.00,,---,0.00,VWS V14.01,2014-01-08 10:34:00,
2014-01-08 05:35:00,6.9,-1.4,30.18,NNW,329,1.0,1.0,68,0.00,,---,0.00,VWS V14.01,2014-01-08 10:35:00,
2014-01-08 05:36:00,6.9,-1.4,30.18,NNW,329,0.0,1.0,68,0.00,,---,0.00,VWS V14.01,2014-01-08 10:36:00,
2014-01-08 05:37:00,7.0,-1.3,30.18,NNW,328,0.0,1.0,68,0.00,,---,0.00,VWS V14.01,2014-01-08 10:37:00,
2014-01-08 05:39:00,7.1,-1.2,30.19,NNW,328,1.0,1.0,68,0.00,,---,0.00,VWS V14.01,2014-01-08 10:39:00,
2014-01-08 05:40:00,7.1,-1.2,30.19,NNW,328,0.0,1.0,68,0.00,,---,0.00,VWS V14.01,2014-01-08 10:40:00,
2014-01-08 05:41:00,7.1,-1.2,30.19,NNW,328,1.0,1.0,68,0.00,,---,0.00,VWS V14.01,2014-01-08 10:41:00,
2014-01-08 05:42:00,7.1,-1.2,30.19,WNW,297,1.0,2.0,68,0.00,,---,0.00,VWS V14.01,2014-01-08 10:42:00,
2014-01-08 05:43:00,7.2,-1.1,30.19,SE,136,1.0,2.0,68,0.00,,---,0.00,VWS V14.01,2014-01-08 10:43:00,
2014-01-08 05:44:00,7.3,-1.3,30.19,West,273,2.0,6.0,67,0.00,,---,0.00,VWS V14.01,2014-01-08 10:44:00,
2014-01-08 05:46:00,7.5,-1.5,30.19,NNE,23,4.0,6.0,66,0.00,,---,0.00,VWS V14.01,2014-01-08 10:46:00,
2014-01-08 05:47:00,7.7,-1.6,30.19,East,79,7.0,7.0,65,0.00,,---,0.00,VWS V14.01,2014-01-08 10:47:00,
2014-01-08 05:48:00,7.9,-1.4,30.19,SSE,149,2.0,9.0,65,0.00,,---,0.00,VWS V14.01,2014-01-08 10:48:00,
2014-01-08 05:50:00,8.5,-1.5,30.19,East,83,2.0,9.0,63,0.00,,---,0.00,VWS V14.01,2014-01-08 10:50:00,
2014-01-08 05:51:00,8.7,-1.6,30.19,East,79,10.0,10.0,62,0.00,,---,0.00,VWS V14.01,2014-01-08 10:51:00,
2014-01-08 05:52:00,8.7,-1.6,30.19,ENE,73,6.0,10.0,62,0.00,,---,0.00,VWS V14.01,2014-01-08 10:52:00,
2014-01-08 05:53:00,8.9,-1.5,30.19,ESE,114,7.0,11.0,62,0.00,,---,0.00,VWS V14.01,2014-01-08 10:53:00,
2014-01-08 05:55:00,9.1,-1.6,30.19,NNE,20,2.0,11.0,61,0.00,,---,0.00,VWS V14.01,2014-01-08 10:55:00,
2014-01-08 05:56:00,9.2,-1.5,30.19,NNE,20,0.0,11.0,61,0.00,,---,0.00,VWS V14.01,2014-01-08 10:56:00,
2014-01-08 05:57:00,9.2,-1.5,30.19,West,274,1.0,11.0,61,0.00,,---,0.00,VWS V14.01,2014-01-08 10:57:00,
2014-01-08 05:58:00,9.1,-1.3,30.19,West,273,1.0,11.0,62,0.00,,---,0.00,VWS V14.01,2014-01-08 10:58:00,
2014-01-08 06:00:00,9.0,-1.7,30.20,SE,128,2.0,11.0,61,0.00,,---,0.00,VWS V14.01,2014-01-08 11:00:00,
2014-01-08 06:01:00,9.0,-1.4,30.20,SE,131,0.0,11.0,62,0.00,,---,0.00,VWS V14.01,2014-01-08 11:01:00,
2014-01-08 06:02:00,9.0,-1.4,30.20,West,263,2.0,11.0,62,0.00,,---,0.00,VWS V14.01,2014-01-08 11:02:00,
2014-01-08 06:04:00,9.2,-1.5,30.20,East,81,3.0,6.0,61,0.00,,---,0.00,VWS V14.01,2014-01-08 11:04:00,
2014-01-08 06:05:00,9.3,-1.4,30.20,NW,323,1.0,6.0,61,0.00,,---,0.00,VWS V14.01,2014-01-08 11:05:00,
2014-01-08 06:06:00,9.3,-1.1,30.20,ESE,118,7.0,7.0,62,0.00,,---,0.00,VWS V14.01,2014-01-08 11:06:00,
2014-01-08 06:07:00,9.3,-1.4,30.20,East,89,2.0,7.0,61,0.00,,---,0.00,VWS V14.01,2014-01-08 11:07:00,
2014-01-08 06:09:00,9.4,-1.3,30.20,SW,219,3.0,7.0,61,0.00,,---,0.00,VWS V14.01,2014-01-08 11:09:00,
2014-01-08 06:10:00,9.4,-1.3,30.20,WSW,242,1.0,7.0,61,0.00,,---,0.00,VWS V14.01,2014-01-08 11:10:00,
2014-01-08 06:11:00,9.5,-1.6,30.20,SE,128,2.0,7.0,60,0.00,,---,0.00,VWS V14.01,2014-01-08 11:11:00,
2014-01-08 06:12:00,9.5,-1.6,30.20,SW,228,2.0,7.0,60,0.00,,---,0.00,VWS V14.01,2014-01-08 11:12:00,
2014-01-08 06:14:00,9.6,-1.5,30.20,West,263,2.0,7.0,60,0.00,,---,0.00,VWS V14.01,2014-01-08 11:14:00,
2014-01-08 06:15:00,9.6,-1.5,30.20,NNW,347,0.0,7.0,60,0.00,,---,0.00,VWS V14.01,2014-01-08 11:15:00,
2014-01-08 06:16:00,9.6,-1.5,30.20,NNW,347,0.0,7.0,60,0.00,,---,0.00,VWS V14.01,2014-01-08 11:16:00,
2014-01-08 06:17:00,9.6,-1.5,30.20,NNW,347,0.0,7.0,60,0.00,,---,0.00,VWS V14.01,2014-01-08 11:17:00,
2014-01-08 06:19:00,9.5,-1.2,30.20,ESE,115,2.0,7.0,61,0.00,,---,0.00,VWS V14.01,2014-01-08 11:19:00,
2014-01-08 06:20:00,9.3,-1.4,30.21,ESE,115,0.0,7.0,61,0.00,,---,0.00,VWS V14.01,2014-01-08 11:20:00,
2014-01-08 06:21:00,9.3,-1.4,30.21,SSW,212,0.0,7.0,61,0.00,,---,0.00,VWS V14.01,2014-01-08 11:21:00,
2014-01-08 06:22:00,9.2,-1.5,30.21,SSW,211,0.0,7.0,61,0.00,,---,0.00,VWS V14.01,2014-01-08 11:22:00,
2014-01-08 06:23:00,9.2,-1.2,30.21,ESE,119,0.0,7.0,62,0.00,,---,0.00,VWS V14.01,2014-01-08 11:23:00,
2014-01-08 06:24:00,9.1,-1.3,30.20,ESE,118,0.0,7.0,62,0.00,,---,0.00,VWS V14.01,2014-01-08 11:24:00,
2014-01-08 06:25:00,9.0,-1.4,30.20,SW,236,1.0,7.0,62,0.00,,---,0.00,VWS V14.01,2014-01-08 11:25:00,
2014-01-08 06:27:00,8.9,-1.1,30.21,SW,236,0.0,7.0,63,0.00,,---,0.00,VWS V14.01,2014-01-08 11:27:00,
2014-01-08 06:28:00,8.9,-1.1,30.20,SW,236,0.0,7.0,63,0.00,,---,0.00,VWS V14.01,2014-01-08 11:28:00,
2014-01-08 06:29:00,8.8,-0.9,30.20,SW,236,0.0,7.0,64,0.00,,---,0.00,VWS V14.01,2014-01-08 11:29:00,
2014-01-08 06:30:00,8.4,-0.6,30.20,West,263,2.0,7.0,66,0.00,,---,0.00,VWS V14.01,2014-01-08 11:30:00,
2014-01-08 06:31:00,8.6,-0.7,30.20,SW,235,1.0,7.0,65,0.00,,---,0.00,VWS V14.01,2014-01-08 11:31:00,
2014-01-08 06:32:00,8.5,-0.5,30.20,SW,236,1.0,7.0,66,0.00,,---,0.00,VWS V14.01,2014-01-08 11:32:00,
2014-01-08 06:33:00,8.3,-0.7,30.20,West,262,2.0,2.0,66,0.00,,---,0.00,VWS V14.01,2014-01-08 11:33:00,
2014-01-08 06:34:00,8.2,-0.8,30.20,WSW,250,0.0,5.0,66,0.00,,---,0.00,VWS V14.01,2014-01-08 11:34:00,
2014-01-08 06:37:00,8.1,-0.6,30.20,SSE,150,0.0,5.0,67,0.00,,---,0.00,VWS V14.01,2014-01-08 11:37:00,
2014-01-08 06:39:00,8.0,-1.0,30.21,WNW,295,4.0,5.0,66,0.00,,---,0.00,VWS V14.01,2014-01-08 11:39:00,
2014-01-08 06:40:00,8.0,-1.0,30.20,West,274,1.0,5.0,66,0.00,,---,0.00,VWS V14.01,2014-01-08 11:40:00,
2014-01-08 06:42:00,8.0,-1.0,30.21,East,101,0.0,5.0,66,0.00,,---,0.00,VWS V14.01,2014-01-08 11:42:00,
2014-01-08 06:43:00,8.0,-1.0,30.21,ESE,102,1.0,5.0,66,0.00,,---,0.00,VWS V14.01,2014-01-08 11:43:00,
2014-01-08 06:44:00,8.0,-1.0,30.21,East,95,2.0,5.0,66,0.00,,---,0.00,VWS V14.01,2014-01-08 11:44:00,
2014-01-08 06:45:00,8.0,-1.3,30.21,East,95,0.0,5.0,65,0.00,,---,0.00,VWS V14.01,2014-01-08 11:45:00,
2014-01-08 06:47:00,8.1,-1.2,30.21,SE,124,1.0,5.0,65,0.00,,---,0.00,VWS V14.01,2014-01-08 11:47:00,
2014-01-08 06:48:00,8.3,-1.4,30.21,ESE,123,0.0,5.0,64,0.00,,---,0.00,VWS V14.01,2014-01-08 11:48:00,
2014-01-08 06:49:00,8.3,-1.4,30.21,ESE,123,0.0,5.0,64,0.00,,---,0.00,VWS V14.01,2014-01-08 11:49:00,
2014-01-08 06:50:00,8.5,-1.2,30.21,ENE,69,4.0,5.0,64,0.00,,---,0.00,VWS V14.01,2014-01-08 11:50:00,
2014-01-08 06:52:00,8.7,-1.3,30.22,ESE,110,6.0,6.0,63,0.00,,---,0.00,VWS V14.01,2014-01-08 11:52:00,
2014-01-08 06:53:00,8.9,-1.5,30.22,West,260,0.0,6.0,62,0.00,,---,0.00,VWS V14.01,2014-01-08 11:53:00,
2014-01-08 06:54:00,9.0,-1.4,30.22,NE,49,4.0,6.0,62,0.00,,---,0.00,VWS V14.01,2014-01-08 11:54:00,
2014-01-08 06:55:00,9.1,-1.3,30.22,ESE,113,3.0,6.0,62,0.00,,---,0.00,VWS V14.01,2014-01-08 11:55:00,
2014-01-08 06:57:00,9.1,-1.3,30.21,East,93,0.0,6.0,62,0.00,,---,0.00,VWS V14.01,2014-01-08 11:57:00,
2014-01-08 06:58:00,9.2,-0.8,30.22,SE,126,1.0,6.0,63,0.00,,---,0.00,VWS V14.01,2014-01-08 11:58:00,
2014-01-08 06:59:00,9.2,-0.8,30.22,East,79,5.0,6.0,63,0.00,,---,0.00,VWS V14.01,2014-01-08 11:59:00,
2014-01-08 07:00:00,9.5,-1.2,30.22,South,187,2.0,6.0,61,0.00,,---,0.00,VWS V14.01,2014-01-08 12:00:00,
2014-01-08 07:02:00,9.4,-1.3,30.22,SSW,197,2.0,6.0,61,0.00,,---,0.00,VWS V14.01,2014-01-08 12:02:00,
2014-01-08 07:03:00,9.5,-1.2,30.22,SSE,157,3.0,6.0,61,0.00,,---,0.00,VWS V14.01,2014-01-08 12:03:00,
2014-01-08 07:04:00,9.6,-1.1,30.22,ESE,111,3.0,3.0,61,0.00,,---,0.00,VWS V14.01,2014-01-08 12:04:00,
2014-01-08 07:07:00,9.8,-1.3,30.22,ESE,109,1.0,6.0,60,0.00,,---,0.00,VWS V14.01,2014-01-08 12:07:00,
2014-01-08 07:08:00,9.8,-1.3,30.23,ESE,113,5.0,6.0,60,0.00,,---,0.00,VWS V14.01,2014-01-08 12:08:00,
2014-01-08 07:09:00,9.8,-1.3,30.23,SE,131,1.0,6.0,60,0.00,,---,0.00,VWS V14.01,2014-01-08 12:09:00,
2014-01-08 07:12:00,9.7,-1.0,30.23,NNW,347,0.0,6.0,61,0.00,,---,0.00,VWS V14.01,2014-01-08 12:12:00,
2014-01-08 07:13:00,9.6,-1.1,30.23,SE,131,1.0,6.0,61,0.00,,---,0.00,VWS V14.01,2014-01-08 12:13:00,
2014-01-08 07:14:00,9.5,-0.9,30.23,WSW,252,4.0,6.0,62,0.00,,---,0.00,VWS V14.01,2014-01-08 12:14:00,
2014-01-08 07:17:00,9.6,-1.1,30.23,ESE,111,4.0,8.0,61,0.00,,---,0.00,VWS V14.01,2014-01-08 12:17:00,
2014-01-08 07:18:00,9.8,-0.9,30.23,East,96,6.0,8.0,61,0.00,,---,0.00,VWS V14.01,2014-01-08 12:18:00,
2014-01-08 07:19:00,9.8,-1.3,30.23,ENE,68,3.0,8.0,60,0.00,,---,0.00,VWS V14.01,2014-01-08 12:19:00,
2014-01-08 07:20:00,9.7,-1.4,30.23,ENE,71,2.0,8.0,60,0.00,,---,0.00,VWS V14.01,2014-01-08 12:20:00,
2014-01-08 07:22:00,9.7,-1.0,30.23,SE,143,4.0,10.0,61,0.00,,---,0.00,VWS V14.01,2014-01-08 12:22:00,
2014-01-08 07:23:00,9.8,-0.9,30.23,SE,124,6.0,11.0,61,0.00,,---,0.00,VWS V14.01,2014-01-08 12:23:00,
2014-01-08 07:24:00,9.8,-1.3,30.23,ESE,115,7.0,11.0,60,0.00,,---,0.00,VWS V14.01,2014-01-08 12:24:00,
2014-01-08 07:25:00,9.9,-1.2,30.23,East,96,3.0,11.0,60,0.00,,---,0.00,VWS V14.01,2014-01-08 12:25:00,
2014-01-08 07:27:00,10.0,-1.1,30.23,ESE,117,1.0,11.0,60,0.00,,---,0.00,VWS V14.01,2014-01-08 12:27:00,
2014-01-08 07:28:00,10.0,-1.1,30.23,SSE,167,1.0,11.0,60,0.00,,---,0.00,VWS V14.01,2014-01-08 12:28:00,
2014-01-08 07:29:00,10.0,-1.1,30.23,South,183,1.0,11.0,60,0.00,,---,0.00,VWS V14.01,2014-01-08 12:29:00,
2014-01-08 07:30:00,9.9,-0.9,30.23,SW,231,1.0,11.0,61,0.00,,---,0.00,VWS V14.01,2014-01-08 12:30:00,
2014-01-08 07:32:00,9.7,-0.7,30.24,SE,131,3.0,11.0,62,0.00,,---,0.00,VWS V14.01,2014-01-08 12:32:00,
2014-01-08 07:33:00,9.7,-0.7,30.24,SE,131,0.0,3.0,62,0.00,,---,0.00,VWS V14.01,2014-01-08 12:33:00,
2014-01-08 07:34:00,9.6,-0.8,30.24,SE,131,0.0,3.0,62,0.00,,---,0.00,VWS V14.01,2014-01-08 12:34:00,
2014-01-08 07:35:00,9.6,-0.8,30.24,East,84,1.0,3.0,62,0.00,,---,0.00,VWS V14.01,2014-01-08 12:35:00,
2014-01-08 07:37:00,9.6,-1.1,30.24,NE,46,0.0,4.0,61,0.00,,---,0.00,VWS V14.01,2014-01-08 12:37:00,
2014-01-08 07:38:00,9.6,-1.1,30.24,WSW,239,2.0,4.0,61,0.00,,---,0.00,VWS V14.01,2014-01-08 12:38:00,
2014-01-08 07:39:00,9.6,-1.1,30.24,SSW,203,1.0,4.0,61,0.00,,---,0.00,VWS V14.01,2014-01-08 12:39:00,
2014-01-08 07:41:00,9.6,-1.1,30.23,NNW,330,5.0,8.0,61,0.00,,---,0.00,VWS V14.01,2014-01-08 12:41:00,
2014-01-08 07:42:00,9.8,-0.9,30.24,ENE,63,4.0,8.0,61,0.00,,---,0.00,VWS V14.01,2014-01-08 12:42:00,
2014-01-08 07:44:00,9.9,-0.9,30.24,East,101,4.0,8.0,61,0.00,,---,0.00,VWS V14.01,2014-01-08 12:44:00,
2014-01-08 07:45:00,9.9,-0.9,30.24,NE,46,3.0,8.0,61,0.00,,---,0.00,VWS V14.01,2014-01-08 12:45:00,
2014-01-08 07:46:00,9.9,-1.2,30.25,East,92,2.0,8.0,60,0.00,,---,0.00,VWS V14.01,2014-01-08 12:46:00,
2014-01-08 07:48:00,9.9,-1.2,30.25,ESE,113,3.0,8.0,60,0.00,,---,0.00,VWS V14.01,2014-01-08 12:48:00,
2014-01-08 07:49:00,9.9,-0.9,30.25,ESE,107,4.0,8.0,61,0.00,,---,0.00,VWS V14.01,2014-01-08 12:49:00,
2014-01-08 07:50:00,9.8,-0.9,30.25,ESE,108,4.0,8.0,61,0.00,,---,0.00,VWS V14.01,2014-01-08 12:50:00,
2014-01-08 07:51:00,9.8,-0.9,30.25,ENE,65,4.0,8.0,61,0.00,,---,0.00,VWS V14.01,2014-01-08 12:51:00,
2014-01-08 07:53:00,10.0,-0.8,30.25,NE,41,4.0,8.0,61,0.00,,---,0.00,VWS V14.01,2014-01-08 12:53:00,
2014-01-08 07:54:00,10.0,-0.8,30.25,ESE,117,7.0,12.0,61,0.00,,---,0.00,VWS V14.01,2014-01-08 12:54:00,
2014-01-08 07:55:00,10.2,-0.9,30.25,SE,140,5.0,12.0,60,0.00,,---,0.00,VWS V14.01,2014-01-08 12:55:00,
2014-01-08 07:56:00,10.3,-0.8,30.25,ESE,107,5.0,12.0,60,0.00,,---,0.00,VWS V14.01,2014-01-08 12:56:00,
2014-01-08 07:58:00,10.3,-0.8,30.25,ESE,116,0.0,12.0,60,0.00,,---,0.00,VWS V14.01,2014-01-08 12:58:00,
2014-01-08 07:59:00,10.3,-0.8,30.25,SE,124,4.0,12.0,60,0.00,,---,0.00,VWS V14.01,2014-01-08 12:59:00,
2014-01-08 08:00:00,10.4,-0.7,30.25,ESE,105,6.0,12.0,60,0.00,,---,0.00,VWS V14.01,2014-01-08 13:00:00,
2014-01-08 08:01:00,10.5,-0.6,30.25,ESE,113,4.0,12.0,60,0.00,,---,0.00,VWS V14.01,2014-01-08 13:01:00,
2014-01-08 08:04:00,10.6,-0.9,30.25,ESE,111,8.0,10.0,59,0.00,,---,0.00,VWS V14.01,2014-01-08 13:04:00,
2014-01-08 08:05:00,10.7,-0.8,30.25,ESE,103,8.0,10.0,59,0.00,,---,0.00,VWS V14.01,2014-01-08 13:05:00,
2014-01-08 08:06:00,10.8,-0.7,30.26,SE,139,3.0,10.0,59,0.00,,---,0.00,VWS V14.01,2014-01-08 13:06:00,
2014-01-08 08:07:00,10.9,-0.6,30.26,SE,136,3.0,10.0,59,0.00,,---,0.00,VWS V14.01,2014-01-08 13:07:00,
2014-01-08 08:09:00,11.0,-0.5,30.26,NE,41,1.0,10.0,59,0.00,,---,0.00,VWS V14.01,2014-01-08 13:09:00,
2014-01-08 08:10:00,11.1,-0.4,30.26,ESE,111,5.0,10.0,59,0.00,,---,0.00,VWS V14.01,2014-01-08 13:10:00,
2014-01-08 08:11:00,11.0,-0.2,30.26,ESE,108,6.0,10.0,60,0.00,,---,0.00,VWS V14.01,2014-01-08 13:11:00,
2014-01-08 08:12:00,11.1,-0.1,30.26,East,86,2.0,10.0,60,0.00,,---,0.00,VWS V14.01,2014-01-08 13:12:00,
2014-01-08 08:14:00,11.1,-0.1,30.26,NE,56,2.0,10.0,60,0.00,,---,0.00,VWS V14.01,2014-01-08 13:14:00,
2014-01-08 08:16:00,11.2,0.0,30.27,East,91,4.0,10.0,60,0.00,,---,0.00,VWS V14.01,2014-01-08 13:16:00,
2014-01-08 08:17:00,11.2,0.0,30.27,NE,50,5.0,10.0,60,0.00,,---,0.00,VWS V14.01,2014-01-08 13:17:00,
2014-01-08 08:19:00,11.3,-0.2,30.27,SE,131,7.0,10.0,59,0.00,,---,0.00,VWS V14.01,2014-01-08 13:19:00,
2014-01-08 08:20:00,11.4,-0.1,30.27,ESE,107,6.0,10.0,59,0.00,,---,0.00,VWS V14.01,2014-01-08 13:20:00,
2014-01-08 08:21:00,11.5,-0.4,30.27,East,101,6.0,10.0,58,0.00,,---,0.00,VWS V14.01,2014-01-08 13:21:00,
2014-01-08 08:23:00,11.6,-0.3,30.27,ENE,71,5.0,10.0,58,0.00,,---,0.00,VWS V14.01,2014-01-08 13:23:00,
2014-01-08 08:24:00,11.7,-0.2,30.27,ENE,65,8.0,10.0,58,0.00,,---,0.00,VWS V14.01,2014-01-08 13:24:00,
2014-01-08 08:25:00,11.7,-0.2,30.27,East,82,6.0,10.0,58,0.00,,---,0.00,VWS V14.01,2014-01-08 13:25:00,
2014-01-08 08:26:00,11.8,-0.1,30.27,East,79,2.0,10.0,58,0.00,,---,0.00,VWS V14.01,2014-01-08 13:26:00,
2014-01-08 08:27:00,11.8,-0.1,30.27,ENE,65,1.0,10.0,58,0.00,,---,0.00,VWS V14.01,2014-01-08 13:27:00,
2014-01-08 08:28:00,11.9,0.0,30.27,WSW,250,4.0,10.0,58,0.00,,---,0.00,VWS V14.01,2014-01-08 13:28:00,
2014-01-08 08:29:00,11.9,0.7,30.27,ESE,105,12.0,12.0,60,0.00,,---,0.00,VWS V14.01,2014-01-08 13:29:00,
2014-01-08 08:30:00,12.0,0.4,30.27,ESE,102,11.0,13.0,59,0.00,,---,0.00,VWS V14.01,2014-01-08 13:30:00,
2014-01-08 08:32:00,12.1,0.2,30.28,NE,41,8.0,16.0,58,0.00,,---,0.00,VWS V14.01,2014-01-08 13:32:00,
2014-01-08 08:33:00,12.3,0.0,30.27,ENE,71,9.0,14.0,57,0.00,,---,0.00,VWS V14.01,2014-01-08 13:33:00,
2014-01-08 08:34:00,12.3,0.0,30.27,ENE,77,6.0,14.0,57,0.00,,---,0.00,VWS V14.01,2014-01-08 13:34:00,
2014-01-08 08:35:00,12.4,0.1,30.28,ESE,110,11.0,14.0,57,0.00,,---,0.00,VWS V14.01,2014-01-08 13:35:00,
2014-01-08 08:37:00,12.4,0.1,30.27,ESE,110,5.0,14.0,57,0.00,,---,0.00,VWS V14.01,2014-01-08 13:37:00,
2014-01-08 08:38:00,12.5,0.2,30.27,ESE,110,5.0,14.0,57,0.00,,---,0.00,VWS V14.01,2014-01-08 13:38:00,
2014-01-08 08:39:00,12.6,0.3,30.28,East,95,7.0,14.0,57,0.00,,---,0.00,VWS V14.01,2014-01-08 13:39:00,
2014-01-08 08:40:00,12.6,0.3,30.28,ENE,64,5.0,14.0,57,0.00,,---,0.00,VWS V14.01,2014-01-08 13:40:00,
2014-01-08 08:42:00,12.7,0.4,30.28,SE,128,10.0,17.0,57,0.00,,---,0.00,VWS V14.01,2014-01-08 13:42:00,
2014-01-08 08:44:00,12.8,0.1,30.28,SE,125,8.0,17.0,56,0.00,,---,0.00,VWS V14.01,2014-01-08 13:44:00,
2014-01-08 08:45:00,12.8,0.1,30.28,ESE,105,10.0,17.0,56,0.00,,---,0.00,VWS V14.01,2014-01-08 13:45:00,
2014-01-08 08:46:00,12.8,0.4,30.28,ESE,108,10.0,17.0,57,0.00,,---,0.00,VWS V14.01,2014-01-08 13:46:00,
2014-01-08 08:47:00,12.8,0.4,30.28,ENE,70,10.0,17.0,57,0.00,,---,0.00,VWS V14.01,2014-01-08 13:47:00,
2014-01-08 08:49:00,12.9,0.6,30.28,NE,46,2.0,17.0,57,0.00,,---,0.00,VWS V14.01,2014-01-08 13:49:00,
2014-01-08 08:50:00,13.0,0.3,30.27,NE,37,2.0,17.0,56,0.00,,---,0.00,VWS V14.01,2014-01-08 13:50:00,
2014-01-08 08:51:00,13.0,0.3,30.27,ESE,116,5.0,17.0,56,0.00,,---,0.00,VWS V14.01,2014-01-08 13:51:00,
2014-01-08 08:52:00,13.0,0.6,30.28,ESE,105,8.0,17.0,57,0.00,,---,0.00,VWS V14.01,2014-01-08 13:52:00,
2014-01-08 08:54:00,13.1,0.4,30.27,ESE,115,7.0,17.0,56,0.00,,---,0.00,VWS V14.01,2014-01-08 13:54:00,
2014-01-08 08:55:00,13.1,0.7,30.28,ESE,108,14.0,17.0,57,0.00,,---,0.00,VWS V14.01,2014-01-08 13:55:00,
2014-01-08 08:56:00,13.3,0.9,30.28,ESE,112,13.0,17.0,57,0.00,,---,0.00,VWS V14.01,2014-01-08 13:56:00,
2014-01-08 08:57:00,13.4,0.6,30.28,ESE,105,8.0,17.0,56,0.00,,---,0.00,VWS V14.01,2014-01-08 13:57:00,
2014-01-08 08:59:00,13.6,0.8,30.28,East,80,4.0,17.0,56,0.00,,---,0.00,VWS V14.01,2014-01-08 13:59:00,
2014-01-08 09:00:00,13.6,0.8,30.28,East,99,5.0,17.0,56,0.00,,---,0.00,VWS V14.01,2014-01-08 14:00:00,
2014-01-08 09:01:00,13.7,0.9,30.28,ESE,111,5.0,17.0,56,0.00,,---,0.00,VWS V14.01,2014-01-08 14:01:00,
2014-01-08 09:02:00,13.8,1.0,30.28,ESE,111,7.0,17.0,56,0.00,,---,0.00,VWS V14.01,2014-01-08 14:02:00,
2014-01-08 09:05:00,13.8,1.0,30.28,ESE,103,6.0,9.0,56,0.00,,---,0.00,VWS V14.01,2014-01-08 14:05:00,
2014-01-08 09:06:00,13.8,0.6,30.28,East,98,14.0,18.0,55,0.00,,---,0.00,VWS V14.01,2014-01-08 14:06:00,
2014-01-08 09:07:00,13.9,1.1,30.29,ESE,114,7.0,18.0,56,0.00,,---,0.00,VWS V14.01,2014-01-08 14:07:00,
2014-01-08 09:10:00,14.3,0.7,30.28,ESE,103,11.0,18.0,54,0.00,,---,0.00,VWS V14.01,2014-01-08 14:10:00,
2014-01-08 09:11:00,14.3,0.7,30.28,ESE,105,11.0,18.0,54,0.00,,---,0.00,VWS V14.01,2014-01-08 14:11:00,
2014-01-08 09:12:00,14.3,0.7,30.29,SE,139,11.0,18.0,54,0.00,,---,0.00,VWS V14.01,2014-01-08 14:12:00,
2014-01-08 09:15:00,14.4,1.2,30.29,NE,50,9.0,18.0,55,0.00,,---,0.00,VWS V14.01,2014-01-08 14:15:00,
2014-01-08 09:16:00,14.5,0.9,30.30,SE,124,5.0,18.0,54,0.00,,---,0.00,VWS V14.01,2014-01-08 14:16:00,
2014-01-08 09:17:00,14.5,0.9,30.30,NE,34,8.0,18.0,54,0.00,,---,0.00,VWS V14.01,2014-01-08 14:17:00,
2014-01-08 09:18:00,14.5,0.9,30.30,East,79,10.0,18.0,54,0.00,,---,0.00,VWS V14.01,2014-01-08 14:18:00,
2014-01-08 09:20:00,14.5,0.9,30.30,ENE,68,8.0,18.0,54,0.00,,---,0.00,VWS V14.01,2014-01-08 14:20:00,
2014-01-08 09:21:00,14.5,0.9,30.30,East,92,13.0,18.0,54,0.00,,---,0.00,VWS V14.01,2014-01-08 14:21:00,
2014-01-08 09:22:00,14.5,0.9,30.30,ESE,105,13.0,18.0,54,0.00,,---,0.00,VWS V14.01,2014-01-08 14:22:00,
2014-01-08 09:23:00,14.5,0.5,30.30,East,101,11.0,18.0,53,0.00,,---,0.00,VWS V14.01,2014-01-08 14:23:00,
2014-01-08 09:25:00,14.5,0.9,30.30,NNE,18,10.0,18.0,54,0.00,,---,0.00,VWS V14.01,2014-01-08 14:25:00,
2014-01-08 09:26:00,14.5,0.9,30.29,SE,126,7.0,18.0,54,0.00,,---,0.00,VWS V14.01,2014-01-08 14:26:00,
2014-01-08 09:27:00,14.5,0.9,30.29,SE,124,6.0,18.0,54,0.00,,---,0.00,VWS V14.01,2014-01-08 14:27:00,
2014-01-08 09:28:00,14.6,1.8,30.30,ESE,110,7.0,18.0,56,0.00,,---,0.00,VWS V14.01,2014-01-08 14:28:00,
2014-01-08 09:30:00,14.7,1.5,30.30,NE,53,11.0,18.0,55,0.00,,---,0.00,VWS V14.01,2014-01-08 14:30:00,
2014-01-08 09:32:00,14.8,1.2,30.30,SE,129,16.0,23.0,54,0.00,,---,0.00,VWS V14.01,2014-01-08 14:32:00,
2014-01-08 09:33:00,14.9,1.3,30.30,ESE,105,8.0,23.0,54,0.00,,---,0.00,VWS V14.01,2014-01-08 14:33:00,
2014-01-08 09:35:00,15.1,1.1,30.31,ESE,110,11.0,21.0,53,0.00,,---,0.00,VWS V14.01,2014-01-08 14:35:00,
2014-01-08 09:37:00,15.2,1.1,30.31,East,98,11.0,21.0,53,0.00,,---,0.00,VWS V14.01,2014-01-08 14:37:00,
2014-01-08 09:38:00,15.2,1.1,30.31,East,89,14.0,21.0,53,0.00,,---,0.00,VWS V14.01,2014-01-08 14:38:00,
2014-01-08 09:41:00,15.3,1.2,30.31,East,92,11.0,21.0,53,0.00,,---,0.00,VWS V14.01,2014-01-08 14:41:00,
2014-01-08 09:42:00,15.4,1.3,30.31,ESE,123,6.0,21.0,53,0.00,,---,0.00,VWS V14.01,2014-01-08 14:42:00,
2014-01-08 09:43:00,15.4,1.3,30.31,ESE,110,10.0,21.0,53,0.00,,---,0.00,VWS V14.01,2014-01-08 14:43:00,
2014-01-08 09:44:00,15.4,1.3,30.31,ESE,122,6.0,21.0,53,0.00,,---,0.00,VWS V14.01,2014-01-08 14:44:00,
2014-01-08 09:46:00,15.5,1.4,30.31,ESE,115,17.0,21.0,53,0.00,,---,0.00,VWS V14.01,2014-01-08 14:46:00,
2014-01-08 09:47:00,15.4,1.3,30.31,East,92,12.0,21.0,53,0.00,,---,0.00,VWS V14.01,2014-01-08 14:47:00,
2014-01-08 09:48:00,15.5,1.4,30.31,ESE,122,6.0,21.0,53,0.00,,---,0.00,VWS V14.01,2014-01-08 14:48:00,
2014-01-08 09:49:00,15.5,1.4,30.31,SE,136,6.0,21.0,53,0.00,,---,0.00,VWS V14.01,2014-01-08 14:49:00,
2014-01-08 09:51:00,15.6,1.5,30.31,ESE,113,6.0,21.0,53,0.00,,---,0.00,VWS V14.01,2014-01-08 14:51:00,
2014-01-08 09:52:00,15.7,1.6,30.32,ESE,113,11.0,21.0,53,0.00,,---,0.00,VWS V14.01,2014-01-08 14:52:00,
2014-01-08 09:53:00,15.7,1.2,30.32,ESE,103,7.0,21.0,52,0.00,,---,0.00,VWS V14.01,2014-01-08 14:53:00,
2014-01-08 09:54:00,15.8,1.7,30.32,East,99,13.0,21.0,53,0.00,,---,0.00,VWS V14.01,2014-01-08 14:54:00,
2014-01-08 09:56:00,15.7,1.2,30.32,SE,124,12.0,21.0,52,0.00,,---,0.00,VWS V14.01,2014-01-08 14:56:00,
2014-01-08 09:57:00,15.7,0.8,30.32,East,100,9.0,21.0,51,0.00,,---,0.00,VWS V14.01,2014-01-08 14:57:00,
2014-01-08 09:58:00,15.7,1.2,30.32,ESE,110,19.0,21.0,52,0.00,,---,0.00,VWS V14.01,2014-01-08 14:58:00,
2014-01-08 09:59:00,15.7,1.2,30.32,ESE,108,11.0,22.0,52,0.00,,---,0.00,VWS V14.01,2014-01-08 14:59:00,
2014-01-08 10:00:00,15.6,1.1,30.32,ESE,122,9.0,22.0,52,0.00,,---,0.00,VWS V14.01,2014-01-08 15:00:00,
2014-01-08 10:01:00,15.7,1.2,30.32,ESE,103,16.0,22.0,52,0.00,,---,0.00,VWS V14.01,2014-01-08 15:01:00,
2014-01-08 10:03:00,15.6,1.1,30.32,ESE,114,13.0,22.0,52,0.00,,---,0.00,VWS V14.01,2014-01-08 15:03:00,
2014-01-08 10:04:00,15.8,1.7,30.32,ESE,123,1.0,9.0,53,0.00,,---,0.00,VWS V14.01,2014-01-08 15:04:00,
2014-01-08 10:05:00,15.8,1.7,30.32,ESE,120,5.0,9.0,53,0.00,,---,0.00,VWS V14.01,2014-01-08 15:05:00,
2014-01-08 10:06:00,15.9,1.4,30.32,SE,136,13.0,19.0,52,0.00,,---,0.00,VWS V14.01,2014-01-08 15:06:00,
2014-01-08 10:08:00,15.8,1.3,30.32,ESE,109,11.0,19.0,52,0.00,,---,0.00,VWS V14.01,2014-01-08 15:08:00,
2014-01-08 10:09:00,15.8,1.3,30.32,ESE,110,13.0,19.0,52,0.00,,---,0.00,VWS V14.01,2014-01-08 15:09:00,
2014-01-08 10:10:00,15.8,1.3,30.32,ESE,103,10.0,19.0,52,0.00,,---,0.00,VWS V14.01,2014-01-08 15:10:00,
2014-01-08 10:11:00,15.9,1.4,30.32,ESE,108,16.0,19.0,52,0.00,,---,0.00,VWS V14.01,2014-01-08 15:11:00,
2014-01-08 10:13:00,15.9,1.4,30.32,ESE,107,12.0,19.0,52,0.00,,---,0.00,VWS V14.01,2014-01-08 15:13:00,
2014-01-08 10:15:00,16.1,1.6,30.32,ESE,120,3.0,19.0,52,0.00,,---,0.00,VWS V14.01,2014-01-08 15:15:00,
2014-01-08 10:16:00,16.1,2.0,30.32,ESE,118,8.0,19.0,53,0.00,,---,0.00,VWS V14.01,2014-01-08 15:16:00,
2014-01-08 10:18:00,16.2,2.1,30.32,ENE,64,17.0,19.0,53,0.00,,---,0.00,VWS V14.01,2014-01-08 15:18:00,
2014-01-08 10:19:00,16.1,1.6,30.32,NE,53,7.0,19.0,52,0.00,,---,0.00,VWS V14.01,2014-01-08 15:19:00,
2014-01-08 10:20:00,16.0,1.5,30.32,ESE,102,14.0,19.0,52,0.00,,---,0.00,VWS V14.01,2014-01-08 15:20:00,
2014-01-08 10:21:00,16.1,1.6,30.32,ESE,122,7.0,19.0,52,0.00,,---,0.00,VWS V14.01,2014-01-08 15:21:00,
2014-01-08 10:23:00,16.2,1.7,30.32,NE,56,11.0,19.0,52,0.00,,---,0.00,VWS V14.01,2014-01-08 15:23:00,
2014-01-08 10:24:00,16.1,1.6,30.32,ENE,64,7.0,19.0,52,0.00,,---,0.00,VWS V14.01,2014-01-08 15:24:00,
2014-01-08 10:25:00,16.1,1.6,30.32,ESE,112,13.0,19.0,52,0.00,,---,0.00,VWS V14.01,2014-01-08 15:25:00,
2014-01-08 10:26:00,16.1,1.6,30.32,East,99,15.0,19.0,52,0.00,,---,0.00,VWS V14.01,2014-01-08 15:26:00,
2014-01-08 10:28:00,16.1,1.6,30.32,SE,124,7.0,25.0,52,0.00,,---,0.00,VWS V14.01,2014-01-08 15:28:00,
2014-01-08 10:29:00,16.1,1.6,30.32,East,98,6.0,25.0,52,0.00,,---,0.00,VWS V14.01,2014-01-08 15:29:00,
2014-01-08 10:30:00,16.1,1.6,30.32,ESE,110,8.0,25.0,52,0.00,,---,0.00,VWS V14.01,2014-01-08 15:30:00,
2014-01-08 10:32:00,16.0,1.5,30.32,ESE,113,11.0,25.0,52,0.00,,---,0.00,VWS V14.01,2014-01-08 15:32:00,
2014-01-08 10:33:00,16.1,1.6,30.32,ESE,119,10.0,11.0,52,0.00,,---,0.00,VWS V14.01,2014-01-08 15:33:00,
2014-01-08 10:34:00,16.2,1.7,30.32,ESE,119,19.0,19.0,52,0.00,,---,0.00,VWS V14.01,2014-01-08 15:34:00,
2014-01-08 10:35:00,16.2,1.7,30.32,ESE,114,13.0,23.0,52,0.00,,---,0.00,VWS V14.01,2014-01-08 15:35:00,
2014-01-08 10:37:00,16.2,1.7,30.32,ESE,111,13.0,23.0,52,0.00,,---,0.00,VWS V14.01,2014-01-08 15:37:00,
2014-01-08 10:38:00,16.2,1.3,30.32,ESE,115,13.0,23.0,51,0.00,,---,0.00,VWS V14.01,2014-01-08 15:38:00,
2014-01-08 10:39:00,16.1,1.2,30.32,ESE,102,11.0,23.0,51,0.00,,---,0.00,VWS V14.01,2014-01-08 15:39:00,
2014-01-08 10:40:00,16.1,1.6,30.32,East,86,10.0,23.0,52,0.00,,---,0.00,VWS V14.01,2014-01-08 15:40:00,
2014-01-08 10:41:00,16.2,1.7,30.32,ESE,102,13.0,23.0,52,0.00,,---,0.00,VWS V14.01,2014-01-08 15:41:00,
2014-01-08 10:42:00,16.2,1.7,30.31,East,99,18.0,23.0,52,0.00,,---,0.00,VWS V14.01,2014-01-08 15:42:00,
2014-01-08 10:43:00,16.2,1.7,30.31,ESE,109,11.0,23.0,52,0.00,,---,0.00,VWS V14.01,2014-01-08 15:43:00,
2014-01-08 10:44:00,16.2,1.7,30.31,ESE,110,18.0,23.0,52,0.00,,---,0.00,VWS V14.01,2014-01-08 15:44:00,
2014-01-08 10:45:00,16.0,1.5,30.31,SE,134,14.0,28.0,52,0.00,,---,0.00,VWS V14.01,2014-01-08 15:45:00,
2014-01-08 10:46:00,16.0,1.5,30.31,SSE,160,20.0,29.0,52,0.00,,---,0.00,VWS V14.01,2014-01-08 15:46:00,
2014-01-08 10:47:00,16.0,1.5,30.31,ESE,118,10.0,29.0,52,0.00,,---,0.00,VWS V14.01,2014-01-08 15:47:00,
2014-01-08 10:48:00,16.0,1.5,30.31,ESE,110,9.0,29.0,52,0.00,,---,0.00,VWS V14.01,2014-01-08 15:48:00,
2014-01-08 10:49:00,16.0,1.9,30.31,ESE,115,15.0,29.0,53,0.00,,---,0.00,VWS V14.01,2014-01-08 15:49:00,
2014-01-08 10:50:00,16.0,1.9,30.31,ESE,103,11.0,29.0,53,0.00,,---,0.00,VWS V14.01,2014-01-08 15:50:00,
2014-01-08 10:52:00,15.9,1.4,30.31,ESE,113,13.0,29.0,52,0.00,,---,0.00,VWS V14.01,2014-01-08 15:52:00,
2014-01-08 10:53:00,16.0,1.5,30.31,ESE,115,12.0,29.0,52,0.00,,---,0.00,VWS V14.01,2014-01-08 15:53:00,
2014-01-08 10:54:00,16.0,1.5,30.31,SE,140,13.0,29.0,52,0.00,,---,0.00,VWS V14.01,2014-01-08 15:54:00,
2014-01-08 10:55:00,16.0,1.5,30.31,ESE,105,17.0,29.0,52,0.00,,---,0.00,VWS V14.01,2014-01-08 15:55:00,
2014-01-08 10:56:00,16.0,1.1,30.31,SE,140,10.0,29.0,51,0.00,,---,0.00,VWS V14.01,2014-01-08 15:56:00,
2014-01-08 10:57:00,16.0,1.5,30.31,ESE,104,10.0,29.0,52,0.00,,---,0.00,VWS V14.01,2014-01-08 15:57:00,
2014-01-08 10:58:00,16.0,1.9,30.31,East,95,10.0,29.0,53,0.00,,---,0.00,VWS V14.01,2014-01-08 15:58:00,
2014-01-08 11:00:00,16.1,2.0,30.31,ESE,103,11.0,29.0,53,0.00,,---,0.00,VWS V14.01,2014-01-08 16:00:00,
2014-01-08 11:01:00,16.2,2.1,30.31,East,92,23.0,29.0,53,0.00,,---,0.00,VWS V14.01,2014-01-08 16:01:00,
2014-01-08 11:02:00,16.2,1.7,30.30,ESE,121,12.0,29.0,52,0.00,,---,0.00,VWS V14.01,2014-01-08 16:02:00,
2014-01-08 11:03:00,16.2,1.3,30.31,East,101,8.0,12.0,51,0.00,,---,0.00,VWS V14.01,2014-01-08 16:03:00,
2014-01-08 11:05:00,16.2,1.3,30.31,ENE,71,13.0,13.0,51,0.00,,---,0.00,VWS V14.01,2014-01-08 16:05:00,
2014-01-08 11:06:00,16.2,1.3,30.31,SE,139,16.0,21.0,51,0.00,,---,0.00,VWS V14.01,2014-01-08 16:06:00,
2014-01-08 11:07:00,16.2,1.3,30.31,ENE,78,20.0,22.0,51,0.00,,---,0.00,VWS V14.01,2014-01-08 16:07:00,
2014-01-08 11:09:00,16.3,1.4,30.31,ESE,121,10.0,22.0,51,0.00,,---,0.00,VWS V14.01,2014-01-08 16:09:00,
2014-01-08 11:10:00,16.3,1.4,30.30,ESE,105,10.0,22.0,51,0.00,,---,0.00,VWS V14.01,2014-01-08 16:10:00,
2014-01-08 11:11:00,16.3,1.4,30.30,SE,129,15.0,22.0,51,0.00,,---,0.00,VWS V14.01,2014-01-08 16:11:00,
2014-01-08 11:12:00,16.4,1.5,30.30,ESE,112,17.0,22.0,51,0.00,,---,0.00,VWS V14.01,2014-01-08 16:12:00,
2014-01-08 11:13:00,16.3,1.4,30.30,SSE,153,16.0,22.0,51,0.00,,---,0.00,VWS V14.01,2014-01-08 16:13:00,
2014-01-08 11:14:00,16.4,1.5,30.30,ESE,113,13.0,24.0,51,0.00,,---,0.00,VWS V14.01,2014-01-08 16:14:00,
2014-01-08 11:15:00,16.3,0.9,30.30,East,96,21.0,25.0,50,0.00,,---,0.00,VWS V14.01,2014-01-08 16:15:00,
2014-01-08 11:16:00,16.2,0.8,30.30,ESE,108,19.0,25.0,50,0.00,,---,0.00,VWS V14.01,2014-01-08 16:16:00,
2014-01-08 11:17:00,16.2,0.8,30.30,SE,129,11.0,25.0,50,0.00,,---,0.00,VWS V14.01,2014-01-08 16:17:00,
2014-01-08 11:18:00,16.2,1.3,30.30,ESE,105,6.0,25.0,51,0.00,,---,0.00,VWS V14.01,2014-01-08 16:18:00,
2014-01-08 11:19:00,16.2,1.3,30.30,ESE,117,12.0,25.0,51,0.00,,---,0.00,VWS V14.01,2014-01-08 16:19:00,
2014-01-08 11:20:00,16.3,1.8,30.30,SE,129,11.0,25.0,52,0.00,,---,0.00,VWS V14.01,2014-01-08 16:20:00,
2014-01-08 11:21:00,16.4,1.9,30.30,SE,129,11.0,25.0,52,0.00,,---,0.00,VWS V14.01,2014-01-08 16:21:00,
2014-01-08 11:22:00,16.5,1.5,30.30,SE,124,13.0,25.0,51,0.00,,---,0.00,VWS V14.01,2014-01-08 16:22:00,
2014-01-08 11:23:00,16.5,1.1,30.30,SE,139,9.0,25.0,50,0.00,,---,0.00,VWS V14.01,2014-01-08 16:23:00,
2014-01-08 11:24:00,16.5,1.1,30.30,ESE,115,8.0,25.0,50,0.00,,---,0.00,VWS V14.01,2014-01-08 16:24:00,
2014-01-08 11:26:00,16.6,1.6,30.29,ESE,112,5.0,25.0,51,0.00,,---,0.00,VWS V14.01,2014-01-08 16:26:00,
2014-01-08 11:27:00,16.7,1.7,30.29,SE,124,7.0,25.0,51,0.00,,---,0.00,VWS V14.01,2014-01-08 16:27:00,
2014-01-08 11:28:00,16.7,1.7,30.29,East,99,13.0,25.0,51,0.00,,---,0.00,VWS V14.01,2014-01-08 16:28:00,
2014-01-08 11:29:00,16.6,1.2,30.29,ESE,118,12.0,25.0,50,0.00,,---,0.00,VWS V14.01,2014-01-08 16:29:00,
2014-01-08 11:30:00,16.7,1.7,30.29,ESE,112,12.0,25.0,51,0.00,,---,0.00,VWS V14.01,2014-01-08 16:30:00,
2014-01-08 11:31:00,16.6,1.2,30.29,ESE,119,11.0,25.0,50,0.00,,---,0.00,VWS V14.01,2014-01-08 16:31:00,
2014-01-08 11:32:00,16.6,1.2,30.29,SE,135,3.0,25.0,50,0.00,,---,0.00,VWS V14.01,2014-01-08 16:32:00,
2014-01-08 11:33:00,16.7,1.7,30.28,ESE,117,9.0,12.0,51,0.00,,---,0.00,VWS V14.01,2014-01-08 16:33:00,
2014-01-08 11:35:00,16.7,1.7,30.28,SE,127,10.0,21.0,51,0.00,,---,0.00,VWS V14.01,2014-01-08 16:35:00,
2014-01-08 11:37:00,16.8,1.8,30.28,ESE,105,9.0,21.0,51,0.00,,---,0.00,VWS V14.01,2014-01-08 16:37:00,
2014-01-08 11:38:00,16.9,1.9,30.27,ESE,119,12.0,21.0,51,0.00,,---,0.00,VWS V14.01,2014-01-08 16:38:00,
2014-01-08 11:40:00,17.1,2.1,30.27,SE,125,9.0,21.0,51,0.00,,---,0.00,VWS V14.01,2014-01-08 16:40:00,
2014-01-08 11:42:00,17.2,1.8,30.27,ESE,117,16.0,21.0,50,0.00,,---,0.00,VWS V14.01,2014-01-08 16:42:00,
2014-01-08 11:43:00,17.2,1.8,30.27,ESE,115,12.0,21.0,50,0.00,,---,0.00,VWS V14.01,2014-01-08 16:43:00,
2014-01-08 11:44:00,17.2,1.8,30.27,ESE,103,13.0,21.0,50,0.00,,---,0.00,VWS V14.01,2014-01-08 16:44:00,
2014-01-08 11:45:00,17.1,1.7,30.27,ENE,64,18.0,21.0,50,0.00,,---,0.00,VWS V14.01,2014-01-08 16:45:00,
2014-01-08 11:47:00,17.1,1.7,30.27,ESE,120,20.0,21.0,50,0.00,,---,0.00,VWS V14.01,2014-01-08 16:47:00,
2014-01-08 11:48:00,17.2,1.8,30.27,ESE,115,17.0,21.0,50,0.00,,---,0.00,VWS V14.01,2014-01-08 16:48:00,
2014-01-08 11:49:00,17.2,1.8,30.27,ENE,58,12.0,22.0,50,0.00,,---,0.00,VWS V14.01,2014-01-08 16:49:00,
2014-01-08 11:50:00,17.3,1.4,30.27,ESE,120,9.0,22.0,49,0.00,,---,0.00,VWS V14.01,2014-01-08 16:50:00,
2014-01-08 11:52:00,17.5,2.0,30.27,NE,49,13.0,22.0,50,0.00,,---,0.00,VWS V14.01,2014-01-08 16:52:00,
2014-01-08 11:53:00,17.5,2.0,30.28,East,92,14.0,22.0,50,0.00,,---,0.00,VWS V14.01,2014-01-08 16:53:00,
2014-01-08 11:54:00,17.5,1.6,30.27,SE,125,12.0,22.0,49,0.00,,---,0.00,VWS V14.01,2014-01-08 16:54:00,
2014-01-08 11:56:00,17.3,1.4,30.27,ENE,63,8.0,22.0,49,0.00,,---,0.00,VWS V14.01,2014-01-08 16:56:00,
2014-01-08 11:57:00,17.3,1.9,30.27,ESE,115,11.0,22.0,50,0.00,,---,0.00,VWS V14.01,2014-01-08 16:57:00,
2014-01-08 11:58:00,17.2,1.3,30.27,ENE,60,7.0,23.0,49,0.00,,---,0.00,VWS V14.01,2014-01-08 16:58:00,
2014-01-08 11:59:00,17.2,1.8,30.27,East,86,17.0,23.0,50,0.00,,---,0.00,VWS V14.01,2014-01-08 16:59:00,
2014-01-08 12:00:00,17.2,1.8,30.27,ENE,75,10.0,23.0,50,0.00,,---,0.00,VWS V14.01,2014-01-08 17:00:00,
2014-01-08 12:01:00,17.1,1.7,30.27,East,98,12.0,23.0,50,0.00,,---,0.00,VWS V14.01,2014-01-08 17:01:00,
2014-01-08 12:02:00,17.2,1.8,30.27,ESE,103,9.0,23.0,50,0.00,,---,0.00,VWS V14.01,2014-01-08 17:02:00,
2014-01-08 12:03:00,17.4,2.0,30.27,ESE,122,11.0,17.0,50,0.00,,---,0.00,VWS V14.01,2014-01-08 17:03:00,
2014-01-08 12:05:00,17.4,1.5,30.27,ESE,110,18.0,25.0,49,0.00,,---,0.00,VWS V14.01,2014-01-08 17:05:00,
2014-01-08 12:06:00,17.4,1.5,30.27,ESE,109,12.0,25.0,49,0.00,,---,0.00,VWS V14.01,2014-01-08 17:06:00,
2014-01-08 12:08:00,17.4,2.0,30.28,ESE,104,16.0,25.0,50,0.00,,---,0.00,VWS V14.01,2014-01-08 17:08:00,
2014-01-08 12:10:00,17.4,1.5,30.28,SE,132,15.0,25.0,49,0.00,,---,0.00,VWS V14.01,2014-01-08 17:10:00,
2014-01-08 12:11:00,17.3,1.4,30.28,SE,126,5.0,25.0,49,0.00,,---,0.00,VWS V14.01,2014-01-08 17:11:00,
2014-01-08 12:13:00,17.3,1.4,30.28,ESE,105,8.0,25.0,49,0.00,,---,0.00,VWS V14.01,2014-01-08 17:13:00,
2014-01-08 12:15:00,17.3,1.9,30.27,East,91,10.0,25.0,50,0.00,,---,0.00,VWS V14.01,2014-01-08 17:15:00,
2014-01-08 12:16:00,17.3,1.9,30.27,ESE,120,6.0,25.0,50,0.00,,---,0.00,VWS V14.01,2014-01-08 17:16:00,
2014-01-08 12:18:00,17.3,2.3,30.26,ESE,112,13.0,25.0,51,0.00,,---,0.00,VWS V14.01,2014-01-08 17:18:00,
2014-01-08 12:19:00,17.3,2.7,30.26,SE,129,16.0,25.0,52,0.00,,---,0.00,VWS V14.01,2014-01-08 17:19:00,
2014-01-08 12:21:00,17.5,2.0,30.26,SE,139,12.0,25.0,50,0.00,,---,0.00,VWS V14.01,2014-01-08 17:21:00,
2014-01-08 12:23:00,17.4,2.0,30.26,ESE,115,18.0,28.0,50,0.00,,---,0.00,VWS V14.01,2014-01-08 17:23:00,
2014-01-08 12:24:00,17.4,2.0,30.26,ESE,105,12.0,28.0,50,0.00,,---,0.00,VWS V14.01,2014-01-08 17:24:00,
2014-01-08 12:26:00,17.4,1.5,30.27,ESE,103,9.0,28.0,49,0.00,,---,0.00,VWS V14.01,2014-01-08 17:26:00,
2014-01-08 12:28:00,17.3,1.4,30.27,ESE,110,5.0,28.0,49,0.00,,---,0.00,VWS V14.01,2014-01-08 17:28:00,
2014-01-08 12:29:00,17.3,1.4,30.27,ESE,113,12.0,28.0,49,0.00,,---,0.00,VWS V14.01,2014-01-08 17:29:00,
2014-01-08 12:30:00,17.4,2.0,30.27,ESE,118,12.0,28.0,50,0.00,,---,0.00,VWS V14.01,2014-01-08 17:30:00,
2014-01-08 12:31:00,17.4,2.0,30.26,SSE,165,13.0,28.0,50,0.00,,---,0.00,VWS V14.01,2014-01-08 17:31:00,
2014-01-08 12:32:00,17.4,2.0,30.26,East,89,11.0,28.0,50,0.00,,---,0.00,VWS V14.01,2014-01-08 17:32:00,
2014-01-08 12:34:00,17.5,2.0,30.27,East,101,13.0,21.0,50,0.00,,---,0.00,VWS V14.01,2014-01-08 17:34:00,
2014-01-08 12:36:00,17.5,2.0,30.27,ESE,113,15.0,25.0,50,0.00,,---,0.00,VWS V14.01,2014-01-08 17:36:00,
2014-01-08 12:37:00,17.6,2.1,30.26,SSW,205,9.0,25.0,50,0.00,,---,0.00,VWS V14.01,2014-01-08 17:37:00,
2014-01-08 12:39:00,17.6,2.1,30.27,East,95,23.0,28.0,50,0.00,,---,0.00,VWS V14.01,2014-01-08 17:39:00,
2014-01-08 12:40:00,17.6,2.1,30.27,ENE,75,14.0,28.0,50,0.00,,---,0.00,VWS V14.01,2014-01-08 17:40:00,
2014-01-08 12:41:00,17.6,2.6,30.26,ESE,105,12.0,28.0,51,0.00,,---,0.00,VWS V14.01,2014-01-08 17:41:00,
2014-01-08 12:42:00,17.5,2.5,30.26,ESE,109,17.0,28.0,51,0.00,,---,0.00,VWS V14.01,2014-01-08 17:42:00,
2014-01-08 12:44:00,17.6,2.1,30.27,ESE,121,10.0,28.0,50,0.00,,---,0.00,VWS V14.01,2014-01-08 17:44:00,
2014-01-08 12:45:00,17.6,2.1,30.27,ESE,115,16.0,28.0,50,0.00,,---,0.00,VWS V14.01,2014-01-08 17:45:00,
2014-01-08 12:46:00,17.6,2.1,30.26,ESE,115,14.0,28.0,50,0.00,,---,0.00,VWS V14.01,2014-01-08 17:46:00,
2014-01-08 12:47:00,17.6,2.1,30.26,ESE,118,14.0,28.0,50,0.00,,---,0.00,VWS V14.01,2014-01-08 17:47:00,
2014-01-08 12:49:00,17.6,2.1,30.27,ESE,115,13.0,28.0,50,0.00,,---,0.00,VWS V14.01,2014-01-08 17:49:00,
2014-01-08 12:50:00,17.7,2.2,30.27,SSE,150,11.0,28.0,50,0.00,,---,0.00,VWS V14.01,2014-01-08 17:50:00,
2014-01-08 12:51:00,17.7,2.2,30.27,East,86,12.0,28.0,50,0.00,,---,0.00,VWS V14.01,2014-01-08 17:51:00,
2014-01-08 12:52:00,17.8,2.3,30.27,SE,128,9.0,28.0,50,0.00,,---,0.00,VWS V14.01,2014-01-08 17:52:00,
2014-01-08 12:54:00,17.9,2.8,30.27,East,101,7.0,28.0,51,0.00,,---,0.00,VWS V14.01,2014-01-08 17:54:00,
2014-01-08 12:55:00,18.0,2.5,30.27,ESE,119,5.0,28.0,50,0.00,,---,0.00,VWS V14.01,2014-01-08 17:55:00,
2014-01-08 12:56:00,18.1,2.6,30.27,ESE,108,18.0,28.0,50,0.00,,---,0.00,VWS V14.01,2014-01-08 17:56:00,
2014-01-08 12:58:00,18.0,2.5,30.27,ESE,110,13.0,28.0,50,0.00,,---,0.00,VWS V14.01,2014-01-08 17:58:00,
2014-01-08 12:59:00,17.9,2.8,30.27,East,88,15.0,28.0,51,0.00,,---,0.00,VWS V14.01,2014-01-08 17:59:00,
2014-01-08 13:00:00,17.8,2.8,30.27,ESE,109,13.0,28.0,51,0.00,,---,0.00,VWS V14.01,2014-01-08 18:00:00,
2014-01-08 13:02:00,17.8,2.8,30.27,ESE,119,6.0,28.0,51,0.00,,---,0.00,VWS V14.01,2014-01-08 18:02:00,
2014-01-08 13:03:00,17.8,3.2,30.27,ESE,121,8.0,28.0,52,0.00,,---,0.00,VWS V14.01,2014-01-08 18:03:00,
2014-01-08 13:05:00,17.7,2.7,30.27,East,97,16.0,19.0,51,0.00,,---,0.00,VWS V14.01,2014-01-08 18:05:00,
2014-01-08 13:07:00,17.6,2.6,30.27,ESE,113,17.0,21.0,51,0.00,,---,0.00,VWS V14.01,2014-01-08 18:07:00,
2014-01-08 13:08:00,17.6,2.6,30.27,ESE,105,13.0,21.0,51,0.00,,---,0.00,VWS V14.01,2014-01-08 18:08:00,
2014-01-08 13:10:00,17.7,2.7,30.28,ESE,105,7.0,21.0,51,0.00,,---,0.00,VWS V14.01,2014-01-08 18:10:00,
2014-01-08 13:12:00,18.0,2.9,30.27,ESE,117,13.0,21.0,51,0.00,,---,0.00,VWS V14.01,2014-01-08 18:12:00,
2014-01-08 13:13:00,18.0,3.3,30.27,ESE,107,10.0,21.0,52,0.00,,---,0.00,VWS V14.01,2014-01-08 18:13:00,
2014-01-08 13:15:00,18.1,3.0,30.27,ENE,72,10.0,21.0,51,0.00,,---,0.00,VWS V14.01,2014-01-08 18:15:00,
2014-01-08 13:16:00,18.0,2.9,30.27,ESE,116,10.0,21.0,51,0.00,,---,0.00,VWS V14.01,2014-01-08 18:16:00,
2014-01-08 13:17:00,17.9,2.8,30.28,East,86,10.0,25.0,51,0.00,,---,0.00,VWS V14.01,2014-01-08 18:17:00,
2014-01-08 13:19:00,17.9,2.8,30.28,ESE,115,8.0,25.0,51,0.00,,---,0.00,VWS V14.01,2014-01-08 18:19:00,
2014-01-08 13:20:00,17.9,2.8,30.28,ESE,109,5.0,25.0,51,0.00,,---,0.00,VWS V14.01,2014-01-08 18:20:00,
2014-01-08 13:21:00,17.9,2.8,30.28,SE,129,6.0,25.0,51,0.00,,---,0.00,VWS V14.01,2014-01-08 18:21:00,
2014-01-08 13:22:00,18.0,2.5,30.28,SE,139,6.0,25.0,50,0.00,,---,0.00,VWS V14.01,2014-01-08 18:22:00,
2014-01-08 13:23:00,18.0,2.9,30.28,SE,125,7.0,25.0,51,0.00,,---,0.00,VWS V14.01,2014-01-08 18:23:00,
2014-01-08 13:24:00,18.1,2.6,30.28,ENE,68,4.0,25.0,50,0.00,,---,0.00,VWS V14.01,2014-01-08 18:24:00,
2014-01-08 13:25:00,18.2,2.7,30.28,East,79,7.0,25.0,50,0.00,,---,0.00,VWS V14.01,2014-01-08 18:25:00,
2014-01-08 13:26:00,18.2,2.7,30.28,ESE,111,21.0,25.0,50,0.00,,---,0.00,VWS V14.01,2014-01-08 18:26:00,
2014-01-08 13:27:00,18.2,3.1,30.28,ESE,112,9.0,25.0,51,0.00,,---,0.00,VWS V14.01,2014-01-08 18:27:00,
2014-01-08 13:28:00,18.2,3.1,30.28,East,99,12.0,25.0,51,0.00,,---,0.00,VWS V14.01,2014-01-08 18:28:00,
2014-01-08 13:29:00,18.1,2.6,30.28,ENE,77,17.0,25.0,50,0.00,,---,0.00,VWS V14.01,2014-01-08 18:29:00,
2014-01-08 13:30:00,18.0,2.5,30.28,East,92,7.0,25.0,50,0.00,,---,0.00,VWS V14.01,2014-01-08 18:30:00,
2014-01-08 13:31:00,17.9,2.4,30.28,East,96,6.0,25.0,50,0.00,,---,0.00,VWS V14.01,2014-01-08 18:31:00,
2014-01-08 13:32:00,17.9,2.8,30.28,ESE,105,13.0,25.0,51,0.00,,---,0.00,VWS V14.01,2014-01-08 18:32:00,
2014-01-08 13:33:00,17.9,3.3,30.28,ESE,115,13.0,14.0,52,0.00,,---,0.00,VWS V14.01,2014-01-08 18:33:00,
2014-01-08 13:34:00,17.8,2.8,30.28,ESE,113,11.0,19.0,51,0.00,,---,0.00,VWS V14.01,2014-01-08 18:34:00,
2014-01-08 13:35:00,17.8,2.8,30.29,SE,136,10.0,24.0,51,0.00,,---,0.00,VWS V14.01,2014-01-08 18:35:00,
2014-01-08 13:36:00,17.7,2.2,30.29,ESE,115,15.0,24.0,50,0.00,,---,0.00,VWS V14.01,2014-01-08 18:36:00,
2014-01-08 13:38:00,17.7,2.7,30.28,East,98,6.0,24.0,51,0.00,,---,0.00,VWS V14.01,2014-01-08 18:38:00,
2014-01-08 13:39:00,17.7,2.7,30.28,ESE,106,12.0,24.0,51,0.00,,---,0.00,VWS V14.01,2014-01-08 18:39:00,
2014-01-08 13:40:00,17.7,2.7,30.28,East,93,17.0,24.0,51,0.00,,---,0.00,VWS V14.01,2014-01-08 18:40:00,
2014-01-08 13:41:00,17.7,2.2,30.28,SE,125,10.0,24.0,50,0.00,,---,0.00,VWS V14.01,2014-01-08 18:41:00,
2014-01-08 13:43:00,17.7,2.7,30.28,SSE,159,5.0,24.0,51,0.00,,---,0.00,VWS V14.01,2014-01-08 18:43:00,
2014-01-08 13:44:00,17.7,2.7,30.28,SW,232,11.0,24.0,51,0.00,,---,0.00,VWS V14.01,2014-01-08 18:44:00,
2014-01-08 13:45:00,17.7,2.7,30.28,ESE,108,13.0,24.0,51,0.00,,---,0.00,VWS V14.01,2014-01-08 18:45:00,
2014-01-08 13:46:00,17.7,2.7,30.28,East,95,11.0,24.0,51,0.00,,---,0.00,VWS V14.01,2014-01-08 18:46:00,
2014-01-08 13:48:00,17.6,2.1,30.28,ESE,122,9.0,24.0,50,0.00,,---,0.00,VWS V14.01,2014-01-08 18:48:00,
2014-01-08 13:49:00,17.6,2.6,30.28,SE,129,9.0,24.0,51,0.00,,---,0.00,VWS V14.01,2014-01-08 18:49:00,
2014-01-08 13:50:00,17.7,2.7,30.28,SE,124,12.0,24.0,51,0.00,,---,0.00,VWS V14.01,2014-01-08 18:50:00,
2014-01-08 13:51:00,17.8,2.8,30.29,ESE,119,7.0,24.0,51,0.00,,---,0.00,VWS V14.01,2014-01-08 18:51:00,
2014-01-08 13:52:00,17.7,2.7,30.29,East,86,11.0,24.0,51,0.00,,---,0.00,VWS V14.01,2014-01-08 18:52:00,
2014-01-08 13:53:00,17.8,2.8,30.28,SE,129,12.0,24.0,51,0.00,,---,0.00,VWS V14.01,2014-01-08 18:53:00,
2014-01-08 13:54:00,17.7,2.7,30.28,ESE,111,11.0,24.0,51,0.00,,---,0.00,VWS V14.01,2014-01-08 18:54:00,
2014-01-08 13:55:00,17.8,2.8,30.29,ESE,105,4.0,24.0,51,0.00,,---,0.00,VWS V14.01,2014-01-08 18:55:00,
2014-01-08 13:56:00,17.8,2.8,30.28,ESE,108,10.0,24.0,51,0.00,,---,0.00,VWS V14.01,2014-01-08 18:56:00,
2014-01-08 13:57:00,17.9,2.8,30.28,ESE,115,8.0,24.0,51,0.00,,---,0.00,VWS V14.01,2014-01-08 18:57:00,
2014-01-08 13:58:00,17.8,2.8,30.29,ESE,103,9.0,24.0,51,0.00,,---,0.00,VWS V14.01,2014-01-08 18:58:00,
2014-01-08 13:59:00,17.9,2.8,30.29,SE,125,9.0,24.0,51,0.00,,---,0.00,VWS V14.01,2014-01-08 18:59:00,
2014-01-08 14:00:00,17.8,2.8,30.28,ESE,115,11.0,24.0,51,0.00,,---,0.00,VWS V14.01,2014-01-08 19:00:00,
2014-01-08 14:01:00,17.8,2.8,30.28,SE,124,10.0,24.0,51,0.00,,---,0.00,VWS V14.01,2014-01-08 19:01:00,
2014-01-08 14:02:00,17.8,2.8,30.28,East,91,7.0,24.0,51,0.00,,---,0.00,VWS V14.01,2014-01-08 19:02:00,
2014-01-08 14:03:00,17.8,2.8,30.29,East,97,15.0,18.0,51,0.00,,---,0.00,VWS V14.01,2014-01-08 19:03:00,
2014-01-08 14:04:00,17.8,2.8,30.29,ESE,110,8.0,18.0,51,0.00,,---,0.00,VWS V14.01,2014-01-08 19:04:00,
2014-01-08 14:05:00,17.9,3.3,30.28,ESE,123,8.0,18.0,52,0.00,,---,0.00,VWS V14.01,2014-01-08 19:05:00,
2014-01-08 14:06:00,17.9,3.3,30.28,ENE,77,7.0,18.0,52,0.00,,---,0.00,VWS V14.01,2014-01-08 19:06:00,
2014-01-08 14:07:00,18.0,3.3,30.28,ESE,105,9.0,18.0,52,0.00,,---,0.00,VWS V14.01,2014-01-08 19:07:00,
2014-01-08 14:08:00,18.0,3.3,30.28,ESE,105,10.0,18.0,52,0.00,,---,0.00,VWS V14.01,2014-01-08 19:08:00,
2014-01-08 14:09:00,18.0,3.3,30.28,ESE,104,9.0,18.0,52,0.00,,---,0.00,VWS V14.01,2014-01-08 19:09:00,
2014-01-08 14:10:00,18.1,3.5,30.29,ESE,113,10.0,18.0,52,0.00,,---,0.00,VWS V14.01,2014-01-08 19:10:00,
2014-01-08 14:11:00,18.2,3.1,30.29,NE,41,12.0,18.0,51,0.00,,---,0.00,VWS V14.01,2014-01-08 19:11:00,
2014-01-08 14:13:00,18.2,3.1,30.28,SE,132,8.0,18.0,51,0.00,,---,0.00,VWS V14.01,2014-01-08 19:13:00,
2014-01-08 14:14:00,18.2,3.1,30.29,ESE,109,7.0,18.0,51,0.00,,---,0.00,VWS V14.01,2014-01-08 19:14:00,
2014-01-08 14:15:00,18.1,3.0,30.29,East,96,17.0,19.0,51,0.00,,---,0.00,VWS V14.01,2014-01-08 19:15:00,
2014-01-08 14:16:00,18.1,3.0,30.29,East,94,11.0,20.0,51,0.00,,---,0.00,VWS V14.01,2014-01-08 19:16:00,
2014-01-08 14:18:00,17.8,2.8,30.29,ENE,75,7.0,20.0,51,0.00,,---,0.00,VWS V14.01,2014-01-08 19:18:00,
2014-01-08 14:19:00,17.8,2.8,30.29,ESE,111,6.0,20.0,51,0.00,,---,0.00,VWS V14.01,2014-01-08 19:19:00,
2014-01-08 14:20:00,17.8,3.2,30.29,ESE,119,13.0,20.0,52,0.00,,---,0.00,VWS V14.01,2014-01-08 19:20:00,
2014-01-08 14:21:00,17.7,3.1,30.29,ESE,115,10.0,20.0,52,0.00,,---,0.00,VWS V14.01,2014-01-08 19:21:00,
2014-01-08 14:23:00,17.7,3.1,30.29,East,94,7.0,20.0,52,0.00,,---,0.00,VWS V14.01,2014-01-08 19:23:00,
2014-01-08 14:24:00,17.6,3.4,30.29,SE,124,11.0,20.0,53,0.00,,---,0.00,VWS V14.01,2014-01-08 19:24:00,
2014-01-08 14:25:00,17.7,3.1,30.29,ESE,105,11.0,20.0,52,0.00,,---,0.00,VWS V14.01,2014-01-08 19:25:00,
2014-01-08 14:26:00,17.7,3.5,30.29,ESE,113,3.0,20.0,53,0.00,,---,0.00,VWS V14.01,2014-01-08 19:26:00,
2014-01-08 14:28:00,17.7,3.1,30.30,ESE,110,4.0,20.0,52,0.00,,---,0.00,VWS V14.01,2014-01-08 19:28:00,
2014-01-08 14:29:00,17.6,3.0,30.30,ENE,72,4.0,20.0,52,0.00,,---,0.00,VWS V14.01,2014-01-08 19:29:00,
2014-01-08 14:30:00,17.4,2.8,30.29,East,100,15.0,20.0,52,0.00,,---,0.00,VWS V14.01,2014-01-08 19:30:00,
2014-01-08 14:31:00,17.1,2.5,30.30,ESE,103,10.0,20.0,52,0.00,,---,0.00,VWS V14.01,2014-01-08 19:31:00,
2014-01-08 14:34:00,16.8,2.7,30.30,East,84,14.0,24.0,53,0.00,,---,0.00,VWS V14.01,2014-01-08 19:34:00,
2014-01-08 14:35:00,16.6,2.0,30.30,ESE,115,13.0,24.0,52,0.00,,---,0.00,VWS V14.01,2014-01-08 19:35:00,
2014-01-08 14:36:00,16.5,2.4,30.30,ENE,70,6.0,24.0,53,0.00,,---,0.00,VWS V14.01,2014-01-08 19:36:00,
2014-01-08 14:37:00,16.6,2.5,30.30,ESE,121,8.0,24.0,53,0.00,,---,0.00,VWS V14.01,2014-01-08 19:37:00,
2014-01-08 14:39:00,16.6,2.5,30.30,SE,135,7.0,24.0,53,0.00,,---,0.00,VWS V14.01,2014-01-08 19:39:00,
2014-01-08 14:40:00,16.5,2.4,30.30,ESE,111,8.0,24.0,53,0.00,,---,0.00,VWS V14.01,2014-01-08 19:40:00,
2014-01-08 14:41:00,16.4,2.3,30.30,ESE,121,7.0,24.0,53,0.00,,---,0.00,VWS V14.01,2014-01-08 19:41:00,
2014-01-08 14:42:00,16.4,2.3,30.30,ESE,112,11.0,24.0,53,0.00,,---,0.00,VWS V14.01,2014-01-08 19:42:00,
2014-01-08 14:44:00,16.5,2.4,30.30,ESE,109,10.0,24.0,53,0.00,,---,0.00,VWS V14.01,2014-01-08 19:44:00,
2014-01-08 14:45:00,16.6,2.5,30.30,ESE,103,7.0,24.0,53,0.00,,---,0.00,VWS V14.01,2014-01-08 19:45:00,
2014-01-08 14:46:00,16.6,2.9,30.30,ESE,115,10.0,24.0,54,0.00,,---,0.00,VWS V14.01,2014-01-08 19:46:00,
2014-01-08 14:47:00,16.6,2.9,30.30,ESE,115,10.0,24.0,54,0.00,,---,0.00,VWS V14.01,2014-01-08 19:47:00,
2014-01-08 14:49:00,16.7,2.5,30.30,SE,125,5.0,24.0,53,0.00,,---,0.00,VWS V14.01,2014-01-08 19:49:00,
2014-01-08 14:50:00,16.8,2.7,30.30,ESE,121,5.0,24.0,53,0.00,,---,0.00,VWS V14.01,2014-01-08 19:50:00,
2014-01-08 14:51:00,16.7,3.0,30.30,ESE,112,7.0,24.0,54,0.00,,---,0.00,VWS V14.01,2014-01-08 19:51:00,
2014-01-08 14:52:00,16.8,3.0,30.30,ESE,120,6.0,24.0,54,0.00,,---,0.00,VWS V14.01,2014-01-08 19:52:00,
2014-01-08 14:54:00,16.9,2.7,30.30,ESE,105,12.0,24.0,53,0.00,,---,0.00,VWS V14.01,2014-01-08 19:54:00,
2014-01-08 14:55:00,17.0,2.8,30.30,East,95,7.0,24.0,53,0.00,,---,0.00,VWS V14.01,2014-01-08 19:55:00,
2014-01-08 14:57:00,17.0,2.8,30.30,ESE,115,5.0,24.0,53,0.00,,---,0.00,VWS V14.01,2014-01-08 19:57:00,
2014-01-08 14:59:00,17.3,2.7,30.30,ESE,105,3.0,24.0,52,0.00,,---,0.00,VWS V14.01,2014-01-08 19:59:00,
2014-01-08 15:00:00,17.3,2.7,30.30,ESE,116,4.0,24.0,52,0.00,,---,0.00,VWS V14.01,2014-01-08 20:00:00,
2014-01-08 15:01:00,17.4,2.8,30.30,ESE,120,6.0,24.0,52,0.00,,---,0.00,VWS V14.01,2014-01-08 20:01:00,
2014-01-08 15:02:00,17.4,2.8,30.30,ESE,115,8.0,24.0,52,0.00,,---,0.00,VWS V14.01,2014-01-08 20:02:00,
2014-01-08 15:04:00,17.5,2.9,30.30,East,86,5.0,11.0,52,0.00,,---,0.00,VWS V14.01,2014-01-08 20:04:00,
2014-01-08 15:05:00,17.5,2.9,30.30,ESE,108,8.0,11.0,52,0.00,,---,0.00,VWS V14.01,2014-01-08 20:05:00,
2014-01-08 15:06:00,17.5,3.3,30.30,East,100,8.0,15.0,53,0.00,,---,0.00,VWS V14.01,2014-01-08 20:06:00,
2014-01-08 15:07:00,17.5,2.9,30.30,ESE,108,6.0,15.0,52,0.00,,---,0.00,VWS V14.01,2014-01-08 20:07:00,
2014-01-08 15:08:00,17.5,2.9,30.30,SE,125,4.0,15.0,52,0.00,,---,0.00,VWS V14.01,2014-01-08 20:08:00,
2014-01-08 15:09:00,17.4,2.8,30.30,SE,137,8.0,19.0,52,0.00,,---,0.00,VWS V14.01,2014-01-08 20:09:00,
2014-01-08 15:10:00,17.4,2.8,30.30,ESE,118,9.0,19.0,52,0.00,,---,0.00,VWS V14.01,2014-01-08 20:10:00,
2014-01-08 15:11:00,17.3,2.7,30.30,SE,129,7.0,19.0,52,0.00,,---,0.00,VWS V14.01,2014-01-08 20:11:00,
2014-01-08 15:12:00,17.3,2.7,30.30,ESE,112,11.0,19.0,52,0.00,,---,0.00,VWS V14.01,2014-01-08 20:12:00,
2014-01-08 15:13:00,17.2,3.0,30.30,SE,146,7.0,19.0,53,0.00,,---,0.00,VWS V14.01,2014-01-08 20:13:00,
2014-01-08 15:15:00,17.1,2.9,30.30,ESE,117,11.0,25.0,53,0.00,,---,0.00,VWS V14.01,2014-01-08 20:15:00,
2014-01-08 15:17:00,17.1,2.9,30.30,ENE,65,14.0,25.0,53,0.00,,---,0.00,VWS V14.01,2014-01-08 20:17:00,
2014-01-08 15:18:00,17.0,2.4,30.31,ESE,112,7.0,25.0,52,0.00,,---,0.00,VWS V14.01,2014-01-08 20:18:00,
2014-01-08 15:20:00,16.9,2.3,30.31,SE,124,10.0,25.0,52,0.00,,---,0.00,VWS V14.01,2014-01-08 20:20:00,
2014-01-08 15:22:00,16.9,2.7,30.31,ESE,102,7.0,25.0,53,0.00,,---,0.00,VWS V14.01,2014-01-08 20:22:00,
2014-01-08 15:23:00,16.9,2.7,30.31,ESE,105,10.0,25.0,53,0.00,,---,0.00,VWS V14.01,2014-01-08 20:23:00,
2014-01-08 15:25:00,16.7,2.5,30.31,ENE,73,12.0,25.0,53,0.00,,---,0.00,VWS V14.01,2014-01-08 20:25:00,
2014-01-08 15:27:00,16.6,2.5,30.31,East,98,11.0,25.0,53,0.00,,---,0.00,VWS V14.01,2014-01-08 20:27:00,
2014-01-08 15:28:00,16.6,2.9,30.31,SE,128,5.0,25.0,54,0.00,,---,0.00,VWS V14.01,2014-01-08 20:28:00,
2014-01-08 15:29:00,16.5,2.8,30.31,SE,127,4.0,25.0,54,0.00,,---,0.00,VWS V14.01,2014-01-08 20:29:00,
2014-01-08 15:30:00,16.3,2.6,30.31,SE,130,13.0,25.0,54,0.00,,---,0.00,VWS V14.01,2014-01-08 20:30:00,
2014-01-08 15:32:00,16.2,2.5,30.31,SE,124,11.0,25.0,54,0.00,,---,0.00,VWS V14.01,2014-01-08 20:32:00,
2014-01-08 15:33:00,16.0,2.3,30.31,ESE,107,7.0,9.0,54,0.00,,---,0.00,VWS V14.01,2014-01-08 20:33:00,
2014-01-08 15:34:00,15.9,2.2,30.31,ESE,123,6.0,10.0,54,0.00,,---,0.00,VWS V14.01,2014-01-08 20:34:00,
2014-01-08 15:35:00,15.8,2.1,30.31,SSE,165,10.0,20.0,54,0.00,,---,0.00,VWS V14.01,2014-01-08 20:35:00,
2014-01-08 15:36:00,15.8,2.1,30.31,ENE,67,15.0,20.0,54,0.00,,---,0.00,VWS V14.01,2014-01-08 20:36:00,
2014-01-08 15:37:00,15.7,2.0,30.31,ESE,110,11.0,20.0,54,0.00,,---,0.00,VWS V14.01,2014-01-08 20:37:00,
2014-01-08 15:38:00,15.7,2.0,30.31,East,101,8.0,20.0,54,0.00,,---,0.00,VWS V14.01,2014-01-08 20:38:00,
2014-01-08 15:39:00,15.6,1.9,30.31,ESE,116,8.0,20.0,54,0.00,,---,0.00,VWS V14.01,2014-01-08 20:39:00,
2014-01-08 15:40:00,15.5,1.8,30.31,ESE,109,12.0,20.0,54,0.00,,---,0.00,VWS V14.01,2014-01-08 20:40:00,
2014-01-08 15:41:00,15.5,2.2,30.31,East,98,9.0,20.0,55,0.00,,---,0.00,VWS V14.01,2014-01-08 20:41:00,
2014-01-08 15:42:00,15.5,1.8,30.31,East,101,6.0,20.0,54,0.00,,---,0.00,VWS V14.01,2014-01-08 20:42:00,
2014-01-08 15:43:00,15.5,2.2,30.31,ESE,120,5.0,20.0,55,0.00,,---,0.00,VWS V14.01,2014-01-08 20:43:00,
2014-01-08 15:45:00,15.4,2.1,30.31,ESE,118,13.0,20.0,55,0.00,,---,0.00,VWS V14.01,2014-01-08 20:45:00,
2014-01-08 15:46:00,15.4,2.1,30.32,ESE,121,5.0,20.0,55,0.00,,---,0.00,VWS V14.01,2014-01-08 20:46:00,
2014-01-08 15:47:00,15.4,2.1,30.31,SE,124,10.0,20.0,55,0.00,,---,0.00,VWS V14.01,2014-01-08 20:47:00,
2014-01-08 15:48:00,15.4,2.1,30.31,ENE,63,9.0,20.0,55,0.00,,---,0.00,VWS V14.01,2014-01-08 20:48:00,
2014-01-08 15:49:00,15.3,2.0,30.32,ESE,120,10.0,21.0,55,0.00,,---,0.00,VWS V14.01,2014-01-08 20:49:00,
2014-01-08 15:50:00,15.3,2.0,30.32,ESE,115,8.0,21.0,55,0.00,,---,0.00,VWS V14.01,2014-01-08 20:50:00,
2014-01-08 15:51:00,15.3,2.0,30.32,ESE,116,13.0,21.0,55,0.00,,---,0.00,VWS V14.01,2014-01-08 20:51:00,
2014-01-08 15:53:00,15.3,2.0,30.32,ESE,120,7.0,21.0,55,0.00,,---,0.00,VWS V14.01,2014-01-08 20:53:00,
2014-01-08 15:54:00,15.3,2.0,30.32,ESE,115,6.0,21.0,55,0.00,,---,0.00,VWS V14.01,2014-01-08 20:54:00,
2014-01-08 15:55:00,15.3,2.0,30.32,ESE,117,8.0,21.0,55,0.00,,---,0.00,VWS V14.01,2014-01-08 20:55:00,
2014-01-08 15:56:00,15.2,2.0,30.32,ESE,110,5.0,21.0,55,0.00,,---,0.00,VWS V14.01,2014-01-08 20:56:00,
2014-01-08 15:57:00,15.2,2.0,30.32,NE,56,3.0,21.0,55,0.00,,---,0.00,VWS V14.01,2014-01-08 20:57:00,
2014-01-08 15:58:00,15.2,2.3,30.32,ESE,103,6.0,21.0,56,0.00,,---,0.00,VWS V14.01,2014-01-08 20:58:00,
2014-01-08 15:59:00,15.2,2.3,30.32,SE,137,4.0,21.0,56,0.00,,---,0.00,VWS V14.01,2014-01-08 20:59:00,
2014-01-08 16:00:00,15.2,2.0,30.33,ESE,113,5.0,21.0,55,0.00,,---,0.00,VWS V14.01,2014-01-08 21:00:00,
2014-01-08 16:01:00,15.2,2.3,30.32,ESE,113,7.0,21.0,56,0.00,,---,0.00,VWS V14.01,2014-01-08 21:01:00,
2014-01-08 16:02:00,15.2,2.3,30.33,SE,131,6.0,21.0,56,0.00,,---,0.00,VWS V14.01,2014-01-08 21:02:00,
2014-01-08 16:03:00,15.2,2.0,30.33,ESE,113,5.0,21.0,55,0.00,,---,0.00,VWS V14.01,2014-01-08 21:03:00,
2014-01-08 16:04:00,15.2,2.0,30.33,ESE,113,7.0,10.0,55,0.00,,---,0.00,VWS V14.01,2014-01-08 21:04:00,
2014-01-08 16:06:00,15.2,2.0,30.33,SE,134,3.0,10.0,55,0.00,,---,0.00,VWS V14.01,2014-01-08 21:06:00,
2014-01-08 16:07:00,15.2,2.0,30.33,SE,128,7.0,10.0,55,0.00,,---,0.00,VWS V14.01,2014-01-08 21:07:00,
2014-01-08 16:08:00,15.2,2.3,30.33,ESE,121,11.0,12.0,56,0.00,,---,0.00,VWS V14.01,2014-01-08 21:08:00,
2014-01-08 16:09:00,15.2,2.3,30.33,ESE,109,8.0,12.0,56,0.00,,---,0.00,VWS V14.01,2014-01-08 21:09:00,
2014-01-08 16:11:00,15.2,2.3,30.33,SE,145,6.0,12.0,56,0.00,,---,0.00,VWS V14.01,2014-01-08 21:11:00,
2014-01-08 16:12:00,15.1,2.2,30.33,ESE,115,5.0,12.0,56,0.00,,---,0.00,VWS V14.01,2014-01-08 21:12:00,
2014-01-08 16:13:00,15.1,2.2,30.33,ESE,108,10.0,12.0,56,0.00,,---,0.00,VWS V14.01,2014-01-08 21:13:00,
2014-01-08 16:14:00,15.0,2.1,30.33,ESE,123,6.0,12.0,56,0.00,,---,0.00,VWS V14.01,2014-01-08 21:14:00,
2014-01-08 16:16:00,14.9,2.0,30.33,East,84,10.0,12.0,56,0.00,,---,0.00,VWS V14.01,2014-01-08 21:16:00,
2014-01-08 16:17:00,14.9,2.0,30.33,ESE,119,9.0,18.0,56,0.00,,---,0.00,VWS V14.01,2014-01-08 21:17:00,
2014-01-08 16:18:00,14.9,2.0,30.33,East,91,9.0,18.0,56,0.00,,---,0.00,VWS V14.01,2014-01-08 21:18:00,
2014-01-08 16:19:00,14.9,2.0,30.33,ESE,110,8.0,18.0,56,0.00,,---,0.00,VWS V14.01,2014-01-08 21:19:00,
2014-01-08 16:20:00,14.9,2.0,30.33,ESE,110,11.0,18.0,56,0.00,,---,0.00,VWS V14.01,2014-01-08 21:20:00,
2014-01-08 16:21:00,14.9,2.0,30.33,East,79,7.0,18.0,56,0.00,,---,0.00,VWS V14.01,2014-01-08 21:21:00,
2014-01-08 16:22:00,14.9,2.0,30.33,ESE,110,9.0,18.0,56,0.00,,---,0.00,VWS V14.01,2014-01-08 21:22:00,
2014-01-08 16:23:00,14.9,2.4,30.33,ESE,112,4.0,18.0,57,0.00,,---,0.00,VWS V14.01,2014-01-08 21:23:00,
2014-01-08 16:24:00,14.9,2.4,30.33,SE,127,11.0,18.0,57,0.00,,---,0.00,VWS V14.01,2014-01-08 21:24:00,
2014-01-08 16:25:00,14.9,2.0,30.33,East,101,16.0,18.0,56,0.00,,---,0.00,VWS V14.01,2014-01-08 21:25:00,
2014-01-08 16:26:00,14.9,2.0,30.33,ENE,68,8.0,22.0,56,0.00,,---,0.00,VWS V14.01,2014-01-08 21:26:00,
2014-01-08 16:27:00,14.8,2.0,30.33,East,83,7.0,22.0,56,0.00,,---,0.00,VWS V14.01,2014-01-08 21:27:00,
2014-01-08 16:28:00,14.8,2.0,30.33,East,84,9.0,22.0,56,0.00,,---,0.00,VWS V14.01,2014-01-08 21:28:00,
2014-01-08 16:29:00,14.8,2.0,30.33,ESE,108,4.0,22.0,56,0.00,,---,0.00,VWS V14.01,2014-01-08 21:29:00,
2014-01-08 16:30:00,14.8,2.0,30.33,East,91,2.0,22.0,56,0.00,,---,0.00,VWS V14.01,2014-01-08 21:30:00,
2014-01-08 16:31:00,14.8,2.3,30.33,ESE,103,10.0,22.0,57,0.00,,---,0.00,VWS V14.01,2014-01-08 21:31:00,
2014-01-08 16:32:00,14.8,2.3,30.33,ESE,105,9.0,22.0,57,0.00,,---,0.00,VWS V14.01,2014-01-08 21:32:00,
2014-01-08 16:33:00,14.8,2.3,30.34,East,100,10.0,11.0,57,0.00,,---,0.00,VWS V14.01,2014-01-08 21:33:00,
2014-01-08 16:34:00,14.7,2.2,30.34,ESE,108,7.0,11.0,57,0.00,,---,0.00,VWS V14.01,2014-01-08 21:34:00,
2014-01-08 16:35:00,14.7,2.2,30.34,East,82,11.0,14.0,57,0.00,,---,0.00,VWS V14.01,2014-01-08 21:35:00,
2014-01-08 16:37:00,14.7,2.2,30.34,East,98,10.0,14.0,57,0.00,,---,0.00,VWS V14.01,2014-01-08 21:37:00,
2014-01-08 16:38:00,14.7,2.2,30.34,ENE,60,6.0,14.0,57,0.00,,---,0.00,VWS V14.01,2014-01-08 21:38:00,
2014-01-08 16:39:00,14.7,2.2,30.34,SE,130,7.0,16.0,57,0.00,,---,0.00,VWS V14.01,2014-01-08 21:39:00,
2014-01-08 16:40:00,14.7,2.2,30.34,ESE,111,13.0,16.0,57,0.00,,---,0.00,VWS V14.01,2014-01-08 21:40:00,
2014-01-08 16:42:00,14.7,1.9,30.34,East,95,5.0,17.0,56,0.00,,---,0.00,VWS V14.01,2014-01-08 21:42:00,
2014-01-08 16:43:00,14.7,2.2,30.34,ESE,119,5.0,17.0,57,0.00,,---,0.00,VWS V14.01,2014-01-08 21:43:00,
2014-01-08 16:44:00,14.6,2.2,30.34,East,98,8.0,17.0,57,0.00,,---,0.00,VWS V14.01,2014-01-08 21:44:00,
2014-01-08 16:45:00,14.6,2.2,30.34,ESE,108,7.0,17.0,57,0.00,,---,0.00,VWS V14.01,2014-01-08 21:45:00,
2014-01-08 16:46:00,14.6,2.2,30.34,ESE,103,10.0,17.0,57,0.00,,---,0.00,VWS V14.01,2014-01-08 21:46:00,
2014-01-08 16:47:00,14.6,2.2,30.34,ESE,115,9.0,17.0,57,0.00,,---,0.00,VWS V14.01,2014-01-08 21:47:00,
2014-01-08 16:48:00,14.6,2.2,30.34,ESE,121,6.0,17.0,57,0.00,,---,0.00,VWS V14.01,2014-01-08 21:48:00,
2014-01-08 16:50:00,14.5,2.0,30.35,ESE,122,8.0,17.0,57,0.00,,---,0.00,VWS V14.01,2014-01-08 21:50:00,
2014-01-08 16:51:00,14.5,2.0,30.35,ESE,115,13.0,17.0,57,0.00,,---,0.00,VWS V14.01,2014-01-08 21:51:00,
2014-01-08 16:52:00,14.5,2.0,30.35,ESE,115,10.0,17.0,57,0.00,,---,0.00,VWS V14.01,2014-01-08 21:52:00,
2014-01-08 16:53:00,14.5,2.0,30.35,ENE,67,10.0,17.0,57,0.00,,---,0.00,VWS V14.01,2014-01-08 21:53:00,
2014-01-08 16:56:00,14.5,2.0,30.35,East,89,9.0,17.0,57,0.00,,---,0.00,VWS V14.01,2014-01-08 21:56:00,
2014-01-08 16:58:00,14.5,2.0,30.35,ESE,108,8.0,17.0,57,0.00,,---,0.00,VWS V14.01,2014-01-08 21:58:00,
2014-01-08 17:00:00,14.3,2.6,30.35,ESE,117,5.0,17.0,59,0.00,,---,0.00,VWS V14.01,2014-01-08 22:00:00,
2014-01-08 17:01:00,14.3,2.2,30.35,ESE,115,6.0,17.0,58,0.00,,---,0.00,VWS V14.01,2014-01-08 22:01:00,
2014-01-08 17:02:00,14.3,2.2,30.35,SE,124,5.0,17.0,58,0.00,,---,0.00,VWS V14.01,2014-01-08 22:02:00,
2014-01-08 17:03:00,14.3,2.6,30.35,ESE,117,5.0,17.0,59,0.00,,---,0.00,VWS V14.01,2014-01-08 22:03:00,
2014-01-08 17:04:00,14.2,2.5,30.35,ESE,103,5.0,7.0,59,0.00,,---,0.00,VWS V14.01,2014-01-08 22:04:00,
2014-01-08 17:06:00,14.1,2.4,30.36,ESE,105,5.0,8.0,59,0.00,,---,0.00,VWS V14.01,2014-01-08 22:06:00,
2014-01-08 17:07:00,14.1,2.4,30.36,ESE,115,4.0,8.0,59,0.00,,---,0.00,VWS V14.01,2014-01-08 22:07:00,
2014-01-08 17:08:00,14.0,2.3,30.36,ESE,115,5.0,8.0,59,0.00,,---,0.00,VWS V14.01,2014-01-08 22:08:00,
2014-01-08 17:09:00,14.0,2.3,30.36,ESE,115,4.0,8.0,59,0.00,,---,0.00,VWS V14.01,2014-01-08 22:09:00,
2014-01-08 17:11:00,13.9,2.2,30.36,ESE,108,3.0,8.0,59,0.00,,---,0.00,VWS V14.01,2014-01-08 22:11:00,
2014-01-08 17:12:00,13.9,2.2,30.36,ESE,110,4.0,8.0,59,0.00,,---,0.00,VWS V14.01,2014-01-08 22:12:00,
2014-01-08 17:13:00,13.8,2.5,30.36,ESE,115,4.0,8.0,60,0.00,,---,0.00,VWS V14.01,2014-01-08 22:13:00,
2014-01-08 17:14:00,13.7,2.4,30.36,ESE,110,3.0,8.0,60,0.00,,---,0.00,VWS V14.01,2014-01-08 22:14:00,
2014-01-08 17:16:00,13.7,2.4,30.36,ESE,108,3.0,8.0,60,0.00,,---,0.00,VWS V14.01,2014-01-08 22:16:00,
2014-01-08 17:17:00,13.7,2.4,30.36,ESE,117,3.0,8.0,60,0.00,,---,0.00,VWS V14.01,2014-01-08 22:17:00,
2014-01-08 17:19:00,13.6,2.3,30.36,ESE,120,5.0,8.0,60,0.00,,---,0.00,VWS V14.01,2014-01-08 22:19:00,
2014-01-08 17:21:00,13.4,2.1,30.36,ESE,113,2.0,8.0,60,0.00,,---,0.00,VWS V14.01,2014-01-08 22:21:00,
2014-01-08 17:22:00,13.4,2.1,30.36,ESE,111,3.0,8.0,60,0.00,,---,0.00,VWS V14.01,2014-01-08 22:22:00,
2014-01-08 17:24:00,13.3,2.4,30.36,SE,129,2.0,8.0,61,0.00,,---,0.00,VWS V14.01,2014-01-08 22:24:00,
2014-01-08 17:25:00,13.2,2.3,30.36,ESE,120,2.0,8.0,61,0.00,,---,0.00,VWS V14.01,2014-01-08 22:25:00,
2014-01-08 17:26:00,13.2,2.3,30.36,ESE,115,2.0,8.0,61,0.00,,---,0.00,VWS V14.01,2014-01-08 22:26:00,
2014-01-08 17:27:00,13.1,2.2,30.36,ESE,113,2.0,8.0,61,0.00,,---,0.00,VWS V14.01,2014-01-08 22:27:00,
2014-01-08 17:29:00,13.1,2.5,30.36,ESE,113,1.0,8.0,62,0.00,,---,0.00,VWS V14.01,2014-01-08 22:29:00,
2014-01-08 17:30:00,13.0,2.4,30.36,ESE,113,2.0,8.0,62,0.00,,---,0.00,VWS V14.01,2014-01-08 22:30:00,
2014-01-08 17:31:00,12.9,2.7,30.36,ESE,113,0.0,8.0,63,0.00,,---,0.00,VWS V14.01,2014-01-08 22:31:00,
2014-01-08 17:32:00,12.9,2.7,30.36,ESE,113,1.0,8.0,63,0.00,,---,0.00,VWS V14.01,2014-01-08 22:32:00,
2014-01-08 17:33:00,12.8,2.6,30.36,ESE,117,0.0,0.0,63,0.00,,---,0.00,VWS V14.01,2014-01-08 22:33:00,
2014-01-08 17:34:00,12.8,2.6,30.36,ESE,117,1.0,3.0,63,0.00,,---,0.00,VWS V14.01,2014-01-08 22:34:00,
2014-01-08 17:35:00,12.8,2.6,30.36,ESE,117,2.0,3.0,63,0.00,,---,0.00,VWS V14.01,2014-01-08 22:35:00,
2014-01-08 17:36:00,12.9,2.3,30.36,SE,127,1.0,3.0,62,0.00,,---,0.00,VWS V14.01,2014-01-08 22:36:00,
2014-01-08 17:38:00,12.9,2.7,30.36,ESE,111,3.0,5.0,63,0.00,,---,0.00,VWS V14.01,2014-01-08 22:38:00,
2014-01-08 17:39:00,13.0,2.8,30.36,SE,126,2.0,5.0,63,0.00,,---,0.00,VWS V14.01,2014-01-08 22:39:00,
2014-01-08 17:40:00,13.0,2.8,30.36,ESE,122,2.0,5.0,63,0.00,,---,0.00,VWS V14.01,2014-01-08 22:40:00,
2014-01-08 17:41:00,12.9,3.4,30.37,SE,126,3.0,5.0,65,0.00,,---,0.00,VWS V14.01,2014-01-08 22:41:00,
2014-01-08 17:43:00,12.8,2.9,30.37,SE,124,3.0,5.0,64,0.00,,---,0.00,VWS V14.01,2014-01-08 22:43:00,
2014-01-08 17:44:00,12.9,2.7,30.37,ESE,118,3.0,5.0,63,0.00,,---,0.00,VWS V14.01,2014-01-08 22:44:00,
2014-01-08 17:45:00,12.9,2.7,30.37,ESE,120,1.0,5.0,63,0.00,,---,0.00,VWS V14.01,2014-01-08 22:45:00,
2014-01-08 17:46:00,13.0,2.8,30.37,SE,135,1.0,5.0,63,0.00,,---,0.00,VWS V14.01,2014-01-08 22:46:00,
2014-01-08 17:48:00,13.0,2.4,30.37,ESE,115,4.0,5.0,62,0.00,,---,0.00,VWS V14.01,2014-01-08 22:48:00,
2014-01-08 17:49:00,12.6,2.8,30.37,ESE,115,1.0,5.0,64,0.00,,---,0.00,VWS V14.01,2014-01-08 22:49:00,
2014-01-08 17:50:00,12.4,2.9,30.37,ESE,115,3.0,5.0,65,0.00,,---,0.00,VWS V14.01,2014-01-08 22:50:00,
2014-01-08 17:51:00,12.1,2.6,30.37,SE,137,3.0,5.0,65,0.00,,---,0.00,VWS V14.01,2014-01-08 22:51:00,
2014-01-08 17:53:00,11.8,2.7,30.37,ESE,115,4.0,5.0,66,0.00,,---,0.00,VWS V14.01,2014-01-08 22:53:00,
2014-01-08 17:54:00,11.4,2.6,30.37,ESE,108,5.0,7.0,67,0.00,,---,0.00,VWS V14.01,2014-01-08 22:54:00,
2014-01-08 17:55:00,11.3,2.5,30.37,SE,130,2.0,7.0,67,0.00,,---,0.00,VWS V14.01,2014-01-08 22:55:00,
2014-01-08 17:56:00,11.1,2.3,30.37,SE,128,5.0,7.0,67,0.00,,---,0.00,VWS V14.01,2014-01-08 22:56:00,
2014-01-08 17:57:00,11.0,2.2,30.37,ESE,123,3.0,7.0,67,0.00,,---,0.00,VWS V14.01,2014-01-08 22:57:00,
2014-01-08 17:58:00,11.2,2.7,30.37,SE,141,1.0,7.0,68,0.00,,---,0.00,VWS V14.01,2014-01-08 22:58:00,
2014-01-08 17:59:00,11.5,2.7,30.36,East,95,7.0,7.0,67,0.00,,---,0.00,VWS V14.01,2014-01-08 22:59:00,
2014-01-08 18:00:00,11.4,2.3,30.36,ESE,115,3.0,7.0,66,0.00,,---,0.00,VWS V14.01,2014-01-08 23:00:00,
2014-01-08 18:02:00,11.2,2.4,30.37,ESE,119,6.0,7.0,67,0.00,,---,0.00,VWS V14.01,2014-01-08 23:02:00,
2014-01-08 18:03:00,11.1,2.3,30.36,ESE,108,7.0,7.0,67,0.00,,---,0.00,VWS V14.01,2014-01-08 23:03:00,
2014-01-08 18:04:00,11.0,2.2,30.36,ESE,115,7.0,7.0,67,0.00,,---,0.00,VWS V14.01,2014-01-08 23:04:00,
2014-01-08 18:05:00,11.0,2.2,30.36,ESE,115,6.0,7.0,67,0.00,,---,0.00,VWS V14.01,2014-01-08 23:05:00,
2014-01-08 18:07:00,10.8,2.0,30.36,ESE,105,8.0,9.0,67,0.00,,---,0.00,VWS V14.01,2014-01-08 23:07:00,
2014-01-08 18:08:00,10.8,2.0,30.36,East,101,7.0,9.0,67,0.00,,---,0.00,VWS V14.01,2014-01-08 23:08:00,
2014-01-08 18:10:00,10.6,1.8,30.36,East,101,6.0,9.0,67,0.00,,---,0.00,VWS V14.01,2014-01-08 23:10:00,
2014-01-08 18:12:00,10.2,1.8,30.37,ESE,110,5.0,9.0,68,0.00,,---,0.00,VWS V14.01,2014-01-08 23:12:00,
2014-01-08 18:13:00,10.2,1.8,30.37,ESE,111,4.0,9.0,68,0.00,,---,0.00,VWS V14.01,2014-01-08 23:13:00,
2014-01-08 18:15:00,10.3,1.9,30.37,East,100,5.0,9.0,68,0.00,,---,0.00,VWS V14.01,2014-01-08 23:15:00,
2014-01-08 18:16:00,10.3,1.9,30.37,East,98,5.0,9.0,68,0.00,,---,0.00,VWS V14.01,2014-01-08 23:16:00,
2014-01-08 18:17:00,10.3,1.9,30.37,ESE,105,5.0,9.0,68,0.00,,---,0.00,VWS V14.01,2014-01-08 23:17:00,
2014-01-08 18:18:00,10.3,1.9,30.37,ESE,115,4.0,9.0,68,0.00,,---,0.00,VWS V14.01,2014-01-08 23:18:00,
2014-01-08 18:19:00,10.2,1.8,30.37,ESE,113,3.0,9.0,68,0.00,,---,0.00,VWS V14.01,2014-01-08 23:19:00,
2014-01-08 18:20:00,10.2,1.8,30.37,ESE,115,4.0,9.0,68,0.00,,---,0.00,VWS V14.01,2014-01-08 23:20:00,
2014-01-08 18:21:00,10.2,1.8,30.37,East,96,7.0,9.0,68,0.00,,---,0.00,VWS V14.01,2014-01-08 23:21:00,
2014-01-08 18:23:00,10.3,1.9,30.37,ESE,115,6.0,9.0,68,0.00,,---,0.00,VWS V14.01,2014-01-08 23:23:00,
2014-01-08 18:24:00,10.4,2.0,30.37,ESE,117,6.0,9.0,68,0.00,,---,0.00,VWS V14.01,2014-01-08 23:24:00,
2014-01-08 18:26:00,10.5,2.0,30.37,ESE,111,6.0,9.0,68,0.00,,---,0.00,VWS V14.01,2014-01-08 23:26:00,
2014-01-08 18:27:00,10.5,2.0,30.37,East,101,6.0,9.0,68,0.00,,---,0.00,VWS V14.01,2014-01-08 23:27:00,
2014-01-08 18:28:00,10.6,1.8,30.37,ESE,115,5.0,9.0,67,0.00,,---,0.00,VWS V14.01,2014-01-08 23:28:00,
2014-01-08 18:29:00,10.7,1.9,30.38,ESE,123,5.0,9.0,67,0.00,,---,0.00,VWS V14.01,2014-01-08 23:29:00,
2014-01-08 18:30:00,11.3,2.2,30.38,East,92,7.0,9.0,66,0.00,,---,0.00,VWS V14.01,2014-01-08 23:30:00,
2014-01-08 18:31:00,11.0,2.2,30.38,ESE,111,3.0,9.0,67,0.00,,---,0.00,VWS V14.01,2014-01-08 23:31:00,
2014-01-08 18:32:00,11.2,2.4,30.38,ESE,110,4.0,9.0,67,0.00,,---,0.00,VWS V14.01,2014-01-08 23:32:00,
2014-01-08 18:33:00,11.3,2.2,30.38,ESE,103,6.0,9.0,66,0.00,,---,0.00,VWS V14.01,2014-01-08 23:33:00,
2014-01-08 18:34:00,11.5,2.4,30.38,ESE,104,6.0,7.0,66,0.00,,---,0.00,VWS V14.01,2014-01-08 23:34:00,
2014-01-08 18:36:00,11.7,2.2,30.38,East,101,8.0,9.0,65,0.00,,---,0.00,VWS V14.01,2014-01-08 23:36:00,
2014-01-08 18:38:00,11.8,2.3,30.38,ESE,105,4.0,9.0,65,0.00,,---,0.00,VWS V14.01,2014-01-08 23:38:00,
2014-01-08 18:39:00,11.7,2.2,30.38,ESE,119,7.0,9.0,65,0.00,,---,0.00,VWS V14.01,2014-01-08 23:39:00,
2014-01-08 18:41:00,11.9,2.1,30.38,SE,140,6.0,9.0,64,0.00,,---,0.00,VWS V14.01,2014-01-08 23:41:00,
2014-01-08 18:43:00,12.3,2.1,30.38,ESE,118,7.0,10.0,63,0.00,,---,0.00,VWS V14.01,2014-01-08 23:43:00,
2014-01-08 18:44:00,12.5,2.3,30.38,ESE,113,10.0,10.0,63,0.00,,---,0.00,VWS V14.01,2014-01-08 23:44:00,
2014-01-08 18:45:00,12.6,2.4,30.38,ESE,110,6.0,10.0,63,0.00,,---,0.00,VWS V14.01,2014-01-08 23:45:00,
2014-01-08 18:46:00,12.7,2.2,30.38,SE,124,7.0,10.0,62,0.00,,---,0.00,VWS V14.01,2014-01-08 23:46:00,
2014-01-08 18:47:00,12.7,2.2,30.38,ESE,120,6.0,10.0,62,0.00,,---,0.00,VWS V14.01,2014-01-08 23:47:00,
2014-01-08 18:48:00,12.7,2.2,30.38,ESE,102,6.0,10.0,62,0.00,,---,0.00,VWS V14.01,2014-01-08 23:48:00,
2014-01-08 18:49:00,12.6,2.1,30.38,ESE,102,7.0,10.0,62,0.00,,---,0.00,VWS V14.01,2014-01-08 23:49:00,
2014-01-08 18:50:00,12.5,2.0,30.38,ESE,113,8.0,11.0,62,0.00,,---,0.00,VWS V14.01,2014-01-08 23:50:00,
2014-01-08 18:52:00,12.5,2.0,30.38,SE,128,7.0,11.0,62,0.00,,---,0.00,VWS V14.01,2014-01-08 23:52:00,
2014-01-08 18:53:00,12.5,2.3,30.38,SE,126,7.0,11.0,63,0.00,,---,0.00,VWS V14.01,2014-01-08 23:53:00,
2014-01-08 18:55:00,12.4,2.2,30.38,ESE,120,5.0,11.0,63,0.00,,---,0.00,VWS V14.01,2014-01-08 23:55:00,
2014-01-08 18:57:00,12.5,2.0,30.37,ESE,108,6.0,11.0,62,0.00,,---,0.00,VWS V14.01,2014-01-08 23:57:00,
2014-01-08 18:59:00,12.5,2.0,30.38,East,93,6.0,11.0,62,0.00,,---,0.00,VWS V14.01,2014-01-08 23:59:00,
2014-01-08 19:00:00,12.5,2.0,30.37,ESE,113,10.0,11.0,62,0.00,,---,0.00,VWS V14.01,2014-01-09 00:00:00,
2014-01-08 19:01:00,12.6,2.1,30.37,ESE,117,7.0,11.0,62,0.00,,---,0.00,VWS V14.01,2014-01-09 00:01:00,
2014-01-08 19:02:00,12.6,2.1,30.38,ESE,115,8.0,11.0,62,0.00,,---,0.00,VWS V14.01,2014-01-09 00:02:00,
2014-01-08 19:04:00,12.6,2.1,30.38,ESE,115,8.0,14.0,62,0.00,,---,0.00,VWS V14.01,2014-01-09 00:04:00,
2014-01-08 19:05:00,12.6,2.1,30.37,ESE,110,8.0,14.0,62,0.00,,---,0.00,VWS V14.01,2014-01-09 00:05:00,
2014-01-08 19:06:00,12.6,2.1,30.37,ESE,106,8.0,14.0,62,0.00,,---,0.00,VWS V14.01,2014-01-09 00:06:00,
2014-01-08 19:07:00,12.6,2.1,30.37,SE,126,7.0,14.0,62,0.00,,---,0.00,VWS V14.01,2014-01-09 00:07:00,
2014-01-08 19:09:00,12.6,2.1,30.37,SSE,147,6.0,14.0,62,0.00,,---,0.00,VWS V14.01,2014-01-09 00:09:00,
2014-01-08 19:10:00,12.8,1.9,30.37,ESE,113,13.0,16.0,61,0.00,,---,0.00,VWS V14.01,2014-01-09 00:10:00,
2014-01-08 19:11:00,12.9,2.0,30.37,ESE,102,10.0,16.0,61,0.00,,---,0.00,VWS V14.01,2014-01-09 00:11:00,
2014-01-08 19:12:00,12.9,2.0,30.37,East,98,9.0,16.0,61,0.00,,---,0.00,VWS V14.01,2014-01-09 00:12:00,
2014-01-08 19:13:00,12.9,2.0,30.37,ESE,108,10.0,16.0,61,0.00,,---,0.00,VWS V14.01,2014-01-09 00:13:00,
2014-01-08 19:14:00,12.9,2.0,30.37,ESE,108,9.0,16.0,61,0.00,,---,0.00,VWS V14.01,2014-01-09 00:14:00,
2014-01-08 19:16:00,12.8,1.9,30.37,ESE,108,11.0,16.0,61,0.00,,---,0.00,VWS V14.01,2014-01-09 00:16:00,
2014-01-08 19:17:00,12.9,2.0,30.37,ESE,110,10.0,16.0,61,0.00,,---,0.00,VWS V14.01,2014-01-09 00:17:00,
2014-01-08 19:18:00,12.9,2.0,30.37,ESE,120,14.0,16.0,61,0.00,,---,0.00,VWS V14.01,2014-01-09 00:18:00,
2014-01-08 19:19:00,13.2,1.9,30.36,ESE,115,8.0,16.0,60,0.00,,---,0.00,VWS V14.01,2014-01-09 00:19:00,
2014-01-08 19:21:00,13.3,2.0,30.36,ESE,109,8.0,16.0,60,0.00,,---,0.00,VWS V14.01,2014-01-09 00:21:00,
2014-01-08 19:22:00,13.2,1.9,30.36,ESE,106,16.0,16.0,60,0.00,,---,0.00,VWS V14.01,2014-01-09 00:22:00,
2014-01-08 19:23:00,13.2,1.9,30.36,East,101,11.0,16.0,60,0.00,,---,0.00,VWS V14.01,2014-01-09 00:23:00,
2014-01-08 19:25:00,13.1,1.8,30.36,ESE,122,10.0,16.0,60,0.00,,---,0.00,VWS V14.01,2014-01-09 00:25:00,
2014-01-08 19:26:00,13.2,1.9,30.36,SE,130,8.0,17.0,60,0.00,,---,0.00,VWS V14.01,2014-01-09 00:26:00,
2014-01-08 19:27:00,13.2,1.9,30.36,SE,124,7.0,17.0,60,0.00,,---,0.00,VWS V14.01,2014-01-09 00:27:00,
2014-01-08 19:28:00,13.2,1.9,30.36,ESE,105,6.0,17.0,60,0.00,,---,0.00,VWS V14.01,2014-01-09 00:28:00,
2014-01-08 19:30:00,13.2,1.9,30.36,ESE,116,8.0,17.0,60,0.00,,---,0.00,VWS V14.01,2014-01-09 00:30:00,
2014-01-08 19:31:00,13.4,2.1,30.36,ESE,113,6.0,17.0,60,0.00,,---,0.00,VWS V14.01,2014-01-09 00:31:00,
2014-01-08 19:32:00,13.4,1.8,30.36,ESE,115,11.0,17.0,59,0.00,,---,0.00,VWS V14.01,2014-01-09 00:32:00,
2014-01-08 19:33:00,13.5,1.9,30.36,ESE,115,6.0,17.0,59,0.00,,---,0.00,VWS V14.01,2014-01-09 00:33:00,
2014-01-08 19:35:00,13.5,1.9,30.36,East,95,12.0,17.0,59,0.00,,---,0.00,VWS V14.01,2014-01-09 00:35:00,
2014-01-08 19:36:00,13.6,2.0,30.35,ESE,120,7.0,18.0,59,0.00,,---,0.00,VWS V14.01,2014-01-09 00:36:00,
2014-01-08 19:37:00,13.5,1.9,30.36,ESE,110,3.0,18.0,59,0.00,,---,0.00,VWS V14.01,2014-01-09 00:37:00,
2014-01-08 19:38:00,13.4,1.8,30.36,SE,129,0.0,18.0,59,0.00,,---,0.00,VWS V14.01,2014-01-09 00:38:00,
2014-01-08 19:39:00,13.4,1.8,30.36,SE,129,0.0,18.0,59,0.00,,---,0.00,VWS V14.01,2014-01-09 00:39:00,
2014-01-08 19:40:00,13.3,2.0,30.36,West,274,2.0,18.0,60,0.00,,---,0.00,VWS V14.01,2014-01-09 00:40:00,
2014-01-08 19:41:00,13.1,2.2,30.36,NW,322,1.0,18.0,61,0.00,,---,0.00,VWS V14.01,2014-01-09 00:41:00,
2014-01-08 19:43:00,13.0,2.1,30.36,NW,322,0.0,18.0,61,0.00,,---,0.00,VWS V14.01,2014-01-09 00:43:00,
2014-01-08 19:44:00,12.9,2.0,30.36,NW,323,2.0,18.0,61,0.00,,---,0.00,VWS V14.01,2014-01-09 00:44:00,
2014-01-08 19:45:00,12.9,1.6,30.36,East,82,1.0,18.0,60,0.00,,---,0.00,VWS V14.01,2014-01-09 00:45:00,
2014-01-08 19:47:00,12.8,1.9,30.36,West,260,5.0,18.0,61,0.00,,---,0.00,VWS V14.01,2014-01-09 00:47:00,
2014-01-08 19:48:00,12.8,1.9,30.36,WSW,249,2.0,18.0,61,0.00,,---,0.00,VWS V14.01,2014-01-09 00:48:00,
2014-01-08 19:49:00,12.8,1.9,30.36,SW,235,0.0,18.0,61,0.00,,---,0.00,VWS V14.01,2014-01-09 00:49:00,
2014-01-08 19:50:00,12.8,1.9,30.36,WNW,285,1.0,18.0,61,0.00,,---,0.00,VWS V14.01,2014-01-09 00:50:00,
2014-01-08 19:52:00,12.8,1.9,30.36,WNW,283,2.0,18.0,61,0.00,,---,0.00,VWS V14.01,2014-01-09 00:52:00,
2014-01-08 19:53:00,12.7,1.5,30.36,WNW,297,1.0,18.0,60,0.00,,---,0.00,VWS V14.01,2014-01-09 00:53:00,
2014-01-08 19:54:00,12.8,1.9,30.36,West,276,2.0,18.0,61,0.00,,---,0.00,VWS V14.01,2014-01-09 00:54:00,
2014-01-08 19:57:00,12.7,1.8,30.36,WSW,243,2.0,18.0,61,0.00,,---,0.00,VWS V14.01,2014-01-09 00:57:00,
2014-01-08 19:58:00,12.5,2.0,30.36,WSW,239,3.0,18.0,62,0.00,,---,0.00,VWS V14.01,2014-01-09 00:58:00,
2014-01-08 19:59:00,12.2,1.7,30.36,WSW,248,2.0,18.0,62,0.00,,---,0.00,VWS V14.01,2014-01-09 00:59:00,
2014-01-08 20:00:00,12.1,1.9,30.36,ENE,63,1.0,18.0,63,0.00,,---,0.00,VWS V14.01,2014-01-09 01:00:00,
2014-01-08 20:02:00,12.1,1.9,30.36,ENE,64,2.0,18.0,63,0.00,,---,0.00,VWS V14.01,2014-01-09 01:02:00,
2014-01-08 20:03:00,12.1,1.9,30.36,ENE,63,1.0,1.0,63,0.00,,---,0.00,VWS V14.01,2014-01-09 01:03:00,
2014-01-08 20:04:00,12.0,2.2,30.36,SSW,201,1.0,3.0,64,0.00,,---,0.00,VWS V14.01,2014-01-09 01:04:00,
2014-01-08 20:06:00,11.7,1.9,30.36,NE,46,5.0,6.0,64,0.00,,---,0.00,VWS V14.01,2014-01-09 01:06:00,
2014-01-08 20:07:00,11.9,2.1,30.36,SW,233,2.0,6.0,64,0.00,,---,0.00,VWS V14.01,2014-01-09 01:07:00,
2014-01-08 20:08:00,12.1,1.9,30.36,WSW,246,1.0,6.0,63,0.00,,---,0.00,VWS V14.01,2014-01-09 01:08:00,
2014-01-08 20:09:00,12.2,2.0,30.36,WSW,252,2.0,6.0,63,0.00,,---,0.00,VWS V14.01,2014-01-09 01:09:00,
2014-01-08 20:10:00,12.3,2.1,30.37,SSE,153,1.0,6.0,63,0.00,,---,0.00,VWS V14.01,2014-01-09 01:10:00,
2014-01-08 20:11:00,12.3,2.1,30.37,WSW,239,1.0,6.0,63,0.00,,---,0.00,VWS V14.01,2014-01-09 01:11:00,
2014-01-08 20:12:00,12.4,1.9,30.37,WSW,256,2.0,6.0,62,0.00,,---,0.00,VWS V14.01,2014-01-09 01:12:00,
2014-01-08 20:13:00,12.5,2.0,30.37,SW,229,4.0,6.0,62,0.00,,---,0.00,VWS V14.01,2014-01-09 01:13:00,
2014-01-08 20:15:00,12.6,1.7,30.37,SW,224,2.0,6.0,61,0.00,,---,0.00,VWS V14.01,2014-01-09 01:15:00,
2014-01-08 20:16:00,12.6,1.7,30.37,SW,224,0.0,6.0,61,0.00,,---,0.00,VWS V14.01,2014-01-09 01:16:00,
2014-01-08 20:17:00,12.6,1.7,30.36,SW,224,0.0,6.0,61,0.00,,---,0.00,VWS V14.01,2014-01-09 01:17:00,
2014-01-08 20:18:00,12.6,1.7,30.37,WSW,254,3.0,6.0,61,0.00,,---,0.00,VWS V14.01,2014-01-09 01:18:00,
2014-01-08 20:19:00,12.5,1.6,30.37,WSW,252,3.0,6.0,61,0.00,,---,0.00,VWS V14.01,2014-01-09 01:19:00,
2014-01-08 20:20:00,12.3,1.8,30.37,WSW,249,1.0,6.0,62,0.00,,---,0.00,VWS V14.01,2014-01-09 01:20:00,
2014-01-08 20:21:00,12.1,2.3,30.37,WSW,249,0.0,6.0,64,0.00,,---,0.00,VWS V14.01,2014-01-09 01:21:00,
2014-01-08 20:22:00,11.9,2.1,30.37,WSW,248,0.0,6.0,64,0.00,,---,0.00,VWS V14.01,2014-01-09 01:22:00,
2014-01-08 20:23:00,11.6,2.1,30.37,WSW,249,0.0,6.0,65,0.00,,---,0.00,VWS V14.01,2014-01-09 01:23:00,
2014-01-08 20:24:00,11.5,2.0,30.37,WSW,249,0.0,6.0,65,0.00,,---,0.00,VWS V14.01,2014-01-09 01:24:00,
2014-01-08 20:25:00,11.2,2.1,30.36,WSW,249,1.0,6.0,66,0.00,,---,0.00,VWS V14.01,2014-01-09 01:25:00,
2014-01-08 20:26:00,10.9,1.8,30.36,WSW,249,0.0,6.0,66,0.00,,---,0.00,VWS V14.01,2014-01-09 01:26:00,
2014-01-08 20:27:00,10.9,1.8,30.36,WSW,249,1.0,6.0,66,0.00,,---,0.00,VWS V14.01,2014-01-09 01:27:00,
2014-01-08 20:28:00,10.5,1.7,30.37,WSW,249,0.0,6.0,67,0.00,,---,0.00,VWS V14.01,2014-01-09 01:28:00,
2014-01-08 20:29:00,10.5,2.0,30.37,WSW,249,0.0,6.0,68,0.00,,---,0.00,VWS V14.01,2014-01-09 01:29:00,
2014-01-08 20:30:00,10.3,1.9,30.37,WSW,249,0.0,6.0,68,0.00,,---,0.00,VWS V14.01,2014-01-09 01:30:00,
2014-01-08 20:31:00,10.2,2.1,30.37,WSW,249,1.0,6.0,69,0.00,,---,0.00,VWS V14.01,2014-01-09 01:31:00,
2014-01-08 20:32:00,10.2,2.1,30.37,WSW,249,2.0,6.0,69,0.00,,---,0.00,VWS V14.01,2014-01-09 01:32:00,
2014-01-08 20:33:00,10.1,2.0,30.37,WSW,249,0.0,1.0,69,0.00,,---,0.00,VWS V14.01,2014-01-09 01:33:00,
2014-01-08 20:34:00,10.0,2.2,30.37,WSW,249,0.0,1.0,70,0.00,,---,0.00,VWS V14.01,2014-01-09 01:34:00,
2014-01-08 20:35:00,9.9,2.1,30.37,WSW,243,1.0,2.0,70,0.00,,---,0.00,VWS V14.01,2014-01-09 01:35:00,
2014-01-08 20:36:00,9.9,2.1,30.37,WSW,243,0.0,2.0,70,0.00,,---,0.00,VWS V14.01,2014-01-09 01:36:00,
2014-01-08 20:37:00,9.9,2.1,30.37,WSW,243,0.0,2.0,70,0.00,,---,0.00,VWS V14.01,2014-01-09 01:37:00,
2014-01-08 20:38:00,9.8,2.0,30.37,ESE,111,0.0,3.0,70,0.00,,---,0.00,VWS V14.01,2014-01-09 01:38:00,
2014-01-08 20:39:00,9.8,2.0,30.37,SW,226,2.0,3.0,70,0.00,,---,0.00,VWS V14.01,2014-01-09 01:39:00,
2014-01-08 20:41:00,9.6,1.8,30.37,WSW,253,0.0,3.0,70,0.00,,---,0.00,VWS V14.01,2014-01-09 01:41:00,
2014-01-08 20:42:00,9.4,1.6,30.38,East,98,0.0,3.0,70,0.00,,---,0.00,VWS V14.01,2014-01-09 01:42:00,
2014-01-08 20:44:00,9.1,1.3,30.38,East,98,0.0,3.0,70,0.00,,---,0.00,VWS V14.01,2014-01-09 01:44:00,
2014-01-08 20:45:00,9.0,1.2,30.37,East,98,0.0,3.0,70,0.00,,---,0.00,VWS V14.01,2014-01-09 01:45:00,
2014-01-08 20:46:00,8.8,1.0,30.38,East,98,0.0,3.0,70,0.00,,---,0.00,VWS V14.01,2014-01-09 01:46:00,
2014-01-08 20:48:00,8.6,1.1,30.38,ESE,115,1.0,4.0,71,0.00,,---,0.00,VWS V14.01,2014-01-09 01:48:00,
2014-01-08 20:49:00,8.5,1.0,30.38,WSW,252,0.0,4.0,71,0.00,,---,0.00,VWS V14.01,2014-01-09 01:49:00,
2014-01-08 20:50:00,8.5,1.3,30.38,ENE,64,1.0,8.0,72,0.00,,---,0.00,VWS V14.01,2014-01-09 01:50:00,
2014-01-08 20:51:00,8.8,1.6,30.37,ENE,63,4.0,8.0,72,0.00,,---,0.00,VWS V14.01,2014-01-09 01:51:00,
2014-01-08 20:53:00,9.3,1.8,30.38,WSW,252,2.0,10.0,71,0.00,,---,0.00,VWS V14.01,2014-01-09 01:53:00,
2014-01-08 20:54:00,9.6,1.8,30.38,WSW,254,1.0,10.0,70,0.00,,---,0.00,VWS V14.01,2014-01-09 01:54:00,
2014-01-08 20:55:00,9.7,1.6,30.38,WSW,253,1.0,10.0,69,0.00,,---,0.00,VWS V14.01,2014-01-09 01:55:00,
2014-01-08 20:56:00,9.8,1.7,30.38,West,264,1.0,10.0,69,0.00,,---,0.00,VWS V14.01,2014-01-09 01:56:00,
2014-01-08 20:57:00,9.8,1.7,30.38,SW,224,2.0,10.0,69,0.00,,---,0.00,VWS V14.01,2014-01-09 01:57:00,
2014-01-08 20:59:00,10.2,1.8,30.38,ESE,115,2.0,10.0,68,0.00,,---,0.00,VWS V14.01,2014-01-09 01:59:00,
2014-01-08 21:00:00,10.5,2.0,30.38,ESE,122,2.0,10.0,68,0.00,,---,0.00,VWS V14.01,2014-01-09 02:00:00,
2014-01-08 21:02:00,10.8,2.0,30.38,SE,130,0.0,10.0,67,0.00,,---,0.00,VWS V14.01,2014-01-09 02:02:00,
2014-01-08 21:04:00,11.2,2.1,30.38,East,91,0.0,3.0,66,0.00,,---,0.00,VWS V14.01,2014-01-09 02:04:00,
2014-01-08 21:05:00,11.3,2.2,30.38,ENE,63,7.0,7.0,66,0.00,,---,0.00,VWS V14.01,2014-01-09 02:05:00,
2014-01-08 21:06:00,11.5,2.0,30.38,NNE,33,5.0,10.0,65,0.00,,---,0.00,VWS V14.01,2014-01-09 02:06:00,
2014-01-08 21:07:00,11.6,2.1,30.38,ESE,115,5.0,10.0,65,0.00,,---,0.00,VWS V14.01,2014-01-09 02:07:00,
2014-01-08 21:09:00,12.0,2.2,30.38,SSE,153,2.0,10.0,64,0.00,,---,0.00,VWS V14.01,2014-01-09 02:09:00,
2014-01-08 21:10:00,12.1,2.3,30.38,ESE,106,4.0,10.0,64,0.00,,---,0.00,VWS V14.01,2014-01-09 02:10:00,
2014-01-08 21:11:00,12.4,2.2,30.38,East,101,4.0,13.0,63,0.00,,---,0.00,VWS V14.01,2014-01-09 02:11:00,
2014-01-08 21:12:00,12.5,2.3,30.38,ESE,113,1.0,13.0,63,0.00,,---,0.00,VWS V14.01,2014-01-09 02:12:00,
2014-01-08 21:14:00,12.6,2.4,30.37,East,85,2.0,13.0,63,0.00,,---,0.00,VWS V14.01,2014-01-09 02:14:00,
2014-01-08 21:15:00,12.6,2.4,30.37,SE,139,0.0,13.0,63,0.00,,---,0.00,VWS V14.01,2014-01-09 02:15:00,
2014-01-08 21:16:00,12.5,2.3,30.37,SE,128,2.0,13.0,63,0.00,,---,0.00,VWS V14.01,2014-01-09 02:16:00,
2014-01-08 21:17:00,12.5,2.3,30.37,SE,129,7.0,13.0,63,0.00,,---,0.00,VWS V14.01,2014-01-09 02:17:00,
2014-01-08 21:19:00,12.3,2.1,30.37,SE,124,3.0,13.0,63,0.00,,---,0.00,VWS V14.01,2014-01-09 02:19:00,
2014-01-08 21:20:00,12.2,2.0,30.37,SE,128,3.0,13.0,63,0.00,,---,0.00,VWS V14.01,2014-01-09 02:20:00,
2014-01-08 21:21:00,12.1,1.9,30.37,East,101,7.0,13.0,63,0.00,,---,0.00,VWS V14.01,2014-01-09 02:21:00,
2014-01-08 21:22:00,12.0,1.8,30.37,ESE,110,5.0,13.0,63,0.00,,---,0.00,VWS V14.01,2014-01-09 02:22:00,
2014-01-08 21:23:00,12.1,1.9,30.37,East,100,4.0,13.0,63,0.00,,---,0.00,VWS V14.01,2014-01-09 02:23:00,
2014-01-08 21:25:00,12.1,1.9,30.37,SE,131,1.0,13.0,63,0.00,,---,0.00,VWS V14.01,2014-01-09 02:25:00,
2014-01-08 21:26:00,12.2,2.0,30.37,ESE,123,5.0,13.0,63,0.00,,---,0.00,VWS V14.01,2014-01-09 02:26:00,
2014-01-08 21:27:00,12.3,2.1,30.37,ESE,122,11.0,17.0,63,0.00,,---,0.00,VWS V14.01,2014-01-09 02:27:00,
2014-01-08 21:28:00,12.6,2.4,30.37,East,87,7.0,17.0,63,0.00,,---,0.00,VWS V14.01,2014-01-09 02:28:00,
2014-01-08 21:30:00,12.9,2.3,30.37,ESE,114,6.0,17.0,62,0.00,,---,0.00,VWS V14.01,2014-01-09 02:30:00,
2014-01-08 21:31:00,13.0,2.1,30.37,ESE,113,5.0,17.0,61,0.00,,---,0.00,VWS V14.01,2014-01-09 02:31:00,
2014-01-08 21:32:00,13.0,2.1,30.37,ESE,110,9.0,17.0,61,0.00,,---,0.00,VWS V14.01,2014-01-09 02:32:00,
2014-01-08 21:33:00,13.0,2.1,30.37,SE,129,6.0,17.0,61,0.00,,---,0.00,VWS V14.01,2014-01-09 02:33:00,
2014-01-08 21:35:00,13.1,2.2,30.37,SSE,163,9.0,13.0,61,0.00,,---,0.00,VWS V14.01,2014-01-09 02:35:00,
2014-01-08 21:36:00,13.2,2.3,30.37,East,95,7.0,13.0,61,0.00,,---,0.00,VWS V14.01,2014-01-09 02:36:00,
2014-01-08 21:37:00,13.2,2.3,30.37,ESE,110,9.0,13.0,61,0.00,,---,0.00,VWS V14.01,2014-01-09 02:37:00,
2014-01-08 21:38:00,13.2,2.3,30.37,ESE,115,8.0,13.0,61,0.00,,---,0.00,VWS V14.01,2014-01-09 02:38:00,
2014-01-08 21:39:00,13.3,2.4,30.37,ESE,120,13.0,13.0,61,0.00,,---,0.00,VWS V14.01,2014-01-09 02:39:00,
2014-01-08 21:40:00,13.4,2.1,30.37,East,91,12.0,13.0,60,0.00,,---,0.00,VWS V14.01,2014-01-09 02:40:00,
2014-01-08 21:41:00,13.4,2.1,30.37,SE,129,14.0,17.0,60,0.00,,---,0.00,VWS V14.01,2014-01-09 02:41:00,
2014-01-08 21:42:00,13.5,2.2,30.37,East,101,8.0,17.0,60,0.00,,---,0.00,VWS V14.01,2014-01-09 02:42:00,
2014-01-08 21:43:00,13.5,2.2,30.37,ESE,120,10.0,17.0,60,0.00,,---,0.00,VWS V14.01,2014-01-09 02:43:00,
2014-01-08 21:44:00,13.6,2.3,30.37,ESE,115,9.0,17.0,60,0.00,,---,0.00,VWS V14.01,2014-01-09 02:44:00,
2014-01-08 21:45:00,13.6,2.3,30.37,ESE,113,10.0,17.0,60,0.00,,---,0.00,VWS V14.01,2014-01-09 02:45:00,
2014-01-08 21:46:00,13.6,2.3,30.38,ESE,108,8.0,17.0,60,0.00,,---,0.00,VWS V14.01,2014-01-09 02:46:00,
2014-01-08 21:48:00,13.6,2.3,30.37,ESE,115,13.0,17.0,60,0.00,,---,0.00,VWS V14.01,2014-01-09 02:48:00,
2014-01-08 21:49:00,13.7,2.4,30.37,ESE,121,10.0,17.0,60,0.00,,---,0.00,VWS V14.01,2014-01-09 02:49:00,
2014-01-08 21:50:00,13.7,2.4,30.37,East,101,11.0,17.0,60,0.00,,---,0.00,VWS V14.01,2014-01-09 02:50:00,
2014-01-08 21:51:00,13.7,2.4,30.37,South,180,6.0,17.0,60,0.00,,---,0.00,VWS V14.01,2014-01-09 02:51:00,
2014-01-08 21:53:00,13.9,2.2,30.37,SE,126,4.0,20.0,59,0.00,,---,0.00,VWS V14.01,2014-01-09 02:53:00,
2014-01-08 21:55:00,14.0,2.3,30.36,ESE,110,10.0,20.0,59,0.00,,---,0.00,VWS V14.01,2014-01-09 02:55:00,
2014-01-08 21:56:00,14.0,2.3,30.36,East,93,14.0,20.0,59,0.00,,---,0.00,VWS V14.01,2014-01-09 02:56:00,
2014-01-08 21:57:00,14.0,2.3,30.37,ESE,115,8.0,20.0,59,0.00,,---,0.00,VWS V14.01,2014-01-09 02:57:00,
2014-01-08 21:58:00,14.0,2.3,30.36,ESE,108,6.0,20.0,59,0.00,,---,0.00,VWS V14.01,2014-01-09 02:58:00,
2014-01-08 22:00:00,14.0,2.3,30.37,ESE,117,7.0,20.0,59,0.00,,---,0.00,VWS V14.01,2014-01-09 03:00:00,
2014-01-08 22:01:00,14.0,2.3,30.37,SE,129,7.0,20.0,59,0.00,,---,0.00,VWS V14.01,2014-01-09 03:01:00,
2014-01-08 22:02:00,14.0,2.3,30.37,ESE,115,9.0,20.0,59,0.00,,---,0.00,VWS V14.01,2014-01-09 03:02:00,
2014-01-08 22:03:00,14.1,2.4,30.37,ESE,105,9.0,12.0,59,0.00,,---,0.00,VWS V14.01,2014-01-09 03:03:00,
2014-01-08 22:04:00,14.1,2.4,30.37,East,94,8.0,12.0,59,0.00,,---,0.00,VWS V14.01,2014-01-09 03:04:00,
2014-01-08 22:06:00,14.0,2.3,30.37,ESE,113,6.0,12.0,59,0.00,,---,0.00,VWS V14.01,2014-01-09 03:06:00,
2014-01-08 22:07:00,14.0,2.3,30.37,ESE,122,13.0,15.0,59,0.00,,---,0.00,VWS V14.01,2014-01-09 03:07:00,
2014-01-08 22:09:00,14.1,2.4,30.36,ESE,110,6.0,15.0,59,0.00,,---,0.00,VWS V14.01,2014-01-09 03:09:00,
2014-01-08 22:11:00,14.2,2.5,30.37,ESE,105,9.0,16.0,59,0.00,,---,0.00,VWS V14.01,2014-01-09 03:11:00,
2014-01-08 22:12:00,14.3,2.2,30.37,SE,124,4.0,16.0,58,0.00,,---,0.00,VWS V14.01,2014-01-09 03:12:00,
2014-01-08 22:14:00,14.3,2.2,30.37,ESE,105,1.0,16.0,58,0.00,,---,0.00,VWS V14.01,2014-01-09 03:14:00,
2014-01-08 22:15:00,14.2,2.5,30.37,ESE,103,8.0,16.0,59,0.00,,---,0.00,VWS V14.01,2014-01-09 03:15:00,
2014-01-08 22:16:00,14.2,2.5,30.37,ESE,115,7.0,16.0,59,0.00,,---,0.00,VWS V14.01,2014-01-09 03:16:00,
2014-01-08 22:17:00,14.2,2.2,30.37,ESE,105,5.0,16.0,58,0.00,,---,0.00,VWS V14.01,2014-01-09 03:17:00,
2014-01-08 22:18:00,14.2,2.5,30.37,SE,124,7.0,18.0,59,0.00,,---,0.00,VWS V14.01,2014-01-09 03:18:00,
2014-01-08 22:20:00,14.3,2.2,30.37,ESE,120,6.0,18.0,58,0.00,,---,0.00,VWS V14.01,2014-01-09 03:20:00,
2014-01-08 22:21:00,14.3,2.2,30.36,ESE,116,11.0,18.0,58,0.00,,---,0.00,VWS V14.01,2014-01-09 03:21:00,
2014-01-08 22:22:00,14.3,2.2,30.36,ESE,119,9.0,18.0,58,0.00,,---,0.00,VWS V14.01,2014-01-09 03:22:00,
2014-01-08 22:23:00,14.4,2.3,30.37,SE,127,6.0,18.0,58,0.00,,---,0.00,VWS V14.01,2014-01-09 03:23:00,
2014-01-08 22:25:00,14.4,2.3,30.37,SE,131,5.0,18.0,58,0.00,,---,0.00,VWS V14.01,2014-01-09 03:25:00,
2014-01-08 22:26:00,14.3,2.2,30.37,ENE,72,11.0,18.0,58,0.00,,---,0.00,VWS V14.01,2014-01-09 03:26:00,
2014-01-08 22:27:00,14.3,2.2,30.37,ESE,119,8.0,18.0,58,0.00,,---,0.00,VWS V14.01,2014-01-09 03:27:00,
2014-01-08 22:28:00,14.3,2.2,30.37,ESE,112,10.0,20.0,58,0.00,,---,0.00,VWS V14.01,2014-01-09 03:28:00,
2014-01-08 22:30:00,14.4,2.3,30.37,ESE,108,8.0,20.0,58,0.00,,---,0.00,VWS V14.01,2014-01-09 03:30:00,
2014-01-08 22:31:00,14.4,2.3,30.37,ESE,117,8.0,20.0,58,0.00,,---,0.00,VWS V14.01,2014-01-09 03:31:00,
2014-01-08 22:32:00,14.4,2.3,30.37,SE,124,11.0,20.0,58,0.00,,---,0.00,VWS V14.01,2014-01-09 03:32:00,
2014-01-08 22:33:00,14.4,2.3,30.37,West,266,1.0,7.0,58,0.00,,---,0.00,VWS V14.01,2014-01-09 03:33:00,
2014-01-08 22:34:00,14.5,2.4,30.37,ESE,113,4.0,7.0,58,0.00,,---,0.00,VWS V14.01,2014-01-09 03:34:00,
2014-01-08 22:35:00,14.4,2.3,30.37,ENE,73,4.0,7.0,58,0.00,,---,0.00,VWS V14.01,2014-01-09 03:35:00,
2014-01-08 22:36:00,14.4,2.3,30.37,East,96,10.0,13.0,58,0.00,,---,0.00,VWS V14.01,2014-01-09 03:36:00,
2014-01-08 22:37:00,14.4,2.3,30.37,ESE,108,15.0,15.0,58,0.00,,---,0.00,VWS V14.01,2014-01-09 03:37:00,
2014-01-08 22:38:00,14.4,2.3,30.38,ESE,110,15.0,21.0,58,0.00,,---,0.00,VWS V14.01,2014-01-09 03:38:00,
2014-01-08 22:40:00,14.4,2.0,30.38,ESE,118,8.0,21.0,57,0.00,,---,0.00,VWS V14.01,2014-01-09 03:40:00,
2014-01-08 22:41:00,14.5,2.0,30.37,East,101,7.0,21.0,57,0.00,,---,0.00,VWS V14.01,2014-01-09 03:41:00,
2014-01-08 22:42:00,14.5,2.0,30.37,East,89,8.0,21.0,57,0.00,,---,0.00,VWS V14.01,2014-01-09 03:42:00,
2014-01-08 22:43:00,14.6,2.2,30.37,ESE,111,8.0,21.0,57,0.00,,---,0.00,VWS V14.01,2014-01-09 03:43:00,
2014-01-08 22:45:00,14.6,2.2,30.37,ESE,105,8.0,21.0,57,0.00,,---,0.00,VWS V14.01,2014-01-09 03:45:00,
2014-01-08 22:46:00,14.5,2.0,30.37,ESE,105,9.0,21.0,57,0.00,,---,0.00,VWS V14.01,2014-01-09 03:46:00,
2014-01-08 22:47:00,14.5,2.0,30.37,ESE,110,14.0,21.0,57,0.00,,---,0.00,VWS V14.01,2014-01-09 03:47:00,
2014-01-08 22:48:00,14.5,2.0,30.37,ESE,122,11.0,21.0,57,0.00,,---,0.00,VWS V14.01,2014-01-09 03:48:00,
2014-01-08 22:50:00,14.6,2.2,30.37,SE,137,5.0,21.0,57,0.00,,---,0.00,VWS V14.01,2014-01-09 03:50:00,
2014-01-08 22:51:00,14.6,2.2,30.36,ESE,111,8.0,21.0,57,0.00,,---,0.00,VWS V14.01,2014-01-09 03:51:00,
2014-01-08 22:52:00,14.6,2.2,30.36,ESE,115,6.0,21.0,57,0.00,,---,0.00,VWS V14.01,2014-01-09 03:52:00,
2014-01-08 22:54:00,14.5,2.0,30.37,East,86,7.0,21.0,57,0.00,,---,0.00,VWS V14.01,2014-01-09 03:54:00,
2014-01-08 22:55:00,14.5,2.0,30.37,ESE,123,2.0,21.0,57,0.00,,---,0.00,VWS V14.01,2014-01-09 03:55:00,
2014-01-08 22:56:00,14.4,2.3,30.37,ESE,122,4.0,21.0,58,0.00,,---,0.00,VWS V14.01,2014-01-09 03:56:00,
2014-01-08 22:57:00,14.4,2.3,30.37,East,86,1.0,21.0,58,0.00,,---,0.00,VWS V14.01,2014-01-09 03:57:00,
2014-01-08 22:59:00,14.2,2.5,30.38,SW,236,1.0,21.0,59,0.00,,---,0.00,VWS V14.01,2014-01-09 03:59:00,
2014-01-08 23:00:00,13.1,2.2,30.38,SW,232,0.0,21.0,61,0.00,,---,0.00,VWS V14.01,2014-01-09 04:00:00,
2014-01-08 23:01:00,13.6,2.3,30.37,SW,236,0.0,21.0,60,0.00,,---,0.00,VWS V14.01,2014-01-09 04:01:00,
2014-01-08 23:02:00,13.3,2.4,30.38,SW,232,0.0,21.0,61,0.00,,---,0.00,VWS V14.01,2014-01-09 04:02:00,
2014-01-08 23:04:00,12.9,2.0,30.37,SE,129,1.0,2.0,61,0.00,,---,0.00,VWS V14.01,2014-01-09 04:04:00,
2014-01-08 23:06:00,13.0,2.1,30.37,East,101,2.0,4.0,61,0.00,,---,0.00,VWS V14.01,2014-01-09 04:06:00,
2014-01-08 23:07:00,13.2,2.3,30.37,East,101,3.0,5.0,61,0.00,,---,0.00,VWS V14.01,2014-01-09 04:07:00,
2014-01-08 23:09:00,13.4,2.1,30.37,SE,128,0.0,5.0,60,0.00,,---,0.00,VWS V14.01,2014-01-09 04:09:00,
2014-01-08 23:11:00,13.3,2.4,30.37,SE,128,0.0,5.0,61,0.00,,---,0.00,VWS V14.01,2014-01-09 04:11:00,
2014-01-08 23:12:00,13.1,2.2,30.37,SE,129,0.0,5.0,61,0.00,,---,0.00,VWS V14.01,2014-01-09 04:12:00,
2014-01-08 23:13:00,13.1,2.2,30.37,SE,128,0.0,5.0,61,0.00,,---,0.00,VWS V14.01,2014-01-09 04:13:00,
2014-01-08 23:14:00,12.9,2.3,30.37,SE,128,0.0,5.0,62,0.00,,---,0.00,VWS V14.01,2014-01-09 04:14:00,
2014-01-08 23:16:00,12.7,1.8,30.37,SE,128,0.0,5.0,61,0.00,,---,0.00,VWS V14.01,2014-01-09 04:16:00,
2014-01-08 23:17:00,12.6,1.7,30.37,East,84,2.0,5.0,61,0.00,,---,0.00,VWS V14.01,2014-01-09 04:17:00,
2014-01-08 23:18:00,12.6,2.1,30.37,ESE,116,1.0,5.0,62,0.00,,---,0.00,VWS V14.01,2014-01-09 04:18:00,
2014-01-08 23:19:00,12.5,2.0,30.37,ESE,115,2.0,5.0,62,0.00,,---,0.00,VWS V14.01,2014-01-09 04:19:00,
2014-01-08 23:21:00,12.5,2.0,30.36,ESE,117,1.0,5.0,62,0.00,,---,0.00,VWS V14.01,2014-01-09 04:21:00,
2014-01-08 23:22:00,12.5,2.0,30.36,ESE,103,2.0,5.0,62,0.00,,---,0.00,VWS V14.01,2014-01-09 04:22:00,
2014-01-08 23:23:00,12.6,1.7,30.36,SSE,148,1.0,5.0,61,0.00,,---,0.00,VWS V14.01,2014-01-09 04:23:00,
2014-01-08 23:25:00,12.8,2.2,30.37,SE,140,0.0,5.0,62,0.00,,---,0.00,VWS V14.01,2014-01-09 04:25:00,
2014-01-08 23:26:00,12.8,2.2,30.37,ESE,117,2.0,5.0,62,0.00,,---,0.00,VWS V14.01,2014-01-09 04:26:00,
2014-01-08 23:27:00,12.7,2.2,30.37,ESE,110,0.0,5.0,62,0.00,,---,0.00,VWS V14.01,2014-01-09 04:27:00,
2014-01-08 23:28:00,12.7,2.2,30.37,ESE,110,0.0,5.0,62,0.00,,---,0.00,VWS V14.01,2014-01-09 04:28:00,
2014-01-08 23:29:00,12.7,2.2,30.37,ESE,120,0.0,5.0,62,0.00,,---,0.00,VWS V14.01,2014-01-09 04:29:00,
2014-01-08 23:30:00,12.6,2.1,30.36,East,87,3.0,5.0,62,0.00,,---,0.00,VWS V14.01,2014-01-09 04:30:00,
2014-01-08 23:31:00,12.7,2.2,30.36,ESE,110,2.0,5.0,62,0.00,,---,0.00,VWS V14.01,2014-01-09 04:31:00,
2014-01-08 23:32:00,12.7,2.2,30.36,ESE,111,3.0,5.0,62,0.00,,---,0.00,VWS V14.01,2014-01-09 04:32:00,
2014-01-08 23:33:00,12.8,2.2,30.36,ESE,119,4.0,5.0,62,0.00,,---,0.00,VWS V14.01,2014-01-09 04:33:00,
2014-01-08 23:34:00,12.8,2.2,30.36,ESE,111,2.0,6.0,62,0.00,,---,0.00,VWS V14.01,2014-01-09 04:34:00,
2014-01-08 23:35:00,12.7,2.2,30.36,ESE,113,0.0,6.0,62,0.00,,---,0.00,VWS V14.01,2014-01-09 04:35:00,
2014-01-08 23:37:00,12.6,2.1,30.36,ESE,113,1.0,6.0,62,0.00,,---,0.00,VWS V14.01,2014-01-09 04:37:00,
2014-01-08 23:38:00,12.6,2.1,30.36,ESE,113,2.0,6.0,62,0.00,,---,0.00,VWS V14.01,2014-01-09 04:38:00,
2014-01-08 23:39:00,12.5,2.0,30.36,ESE,120,2.0,8.0,62,0.00,,---,0.00,VWS V14.01,2014-01-09 04:39:00,
2014-01-08 23:40:00,12.5,2.0,30.36,ESE,117,4.0,8.0,62,0.00,,---,0.00,VWS V14.01,2014-01-09 04:40:00,
2014-01-08 23:42:00,12.6,2.4,30.36,SE,130,3.0,8.0,63,0.00,,---,0.00,VWS V14.01,2014-01-09 04:42:00,
2014-01-08 23:43:00,12.6,2.4,30.36,SE,128,3.0,8.0,63,0.00,,---,0.00,VWS V14.01,2014-01-09 04:43:00,
2014-01-08 23:44:00,12.6,2.4,30.36,ESE,117,3.0,8.0,63,0.00,,---,0.00,VWS V14.01,2014-01-09 04:44:00,
2014-01-08 23:45:00,12.6,2.4,30.36,East,95,4.0,8.0,63,0.00,,---,0.00,VWS V14.01,2014-01-09 04:45:00,
2014-01-08 23:47:00,12.9,2.3,30.36,East,101,6.0,8.0,62,0.00,,---,0.00,VWS V14.01,2014-01-09 04:47:00,
2014-01-08 23:48:00,13.1,2.5,30.36,ESE,123,0.0,8.0,62,0.00,,---,0.00,VWS V14.01,2014-01-09 04:48:00,
2014-01-08 23:49:00,13.2,2.6,30.36,ESE,122,0.0,8.0,62,0.00,,---,0.00,VWS V14.01,2014-01-09 04:49:00,
2014-01-08 23:50:00,13.3,2.7,30.36,ESE,123,0.0,8.0,62,0.00,,---,0.00,VWS V14.01,2014-01-09 04:50:00,
2014-01-08 23:51:00,13.3,2.7,30.36,ESE,103,6.0,8.0,62,0.00,,---,0.00,VWS V14.01,2014-01-09 04:51:00,
2014-01-08 23:52:00,13.4,2.5,30.36,ESE,120,6.0,8.0,61,0.00,,---,0.00,VWS V14.01,2014-01-09 04:52:00,
2014-01-08 23:53:00,13.3,2.7,30.36,ESE,105,3.0,8.0,62,0.00,,---,0.00,VWS V14.01,2014-01-09 04:53:00,
2014-01-08 23:54:00,13.4,2.5,30.36,ESE,115,5.0,8.0,61,0.00,,---,0.00,VWS V14.01,2014-01-09 04:54:00,
2014-01-08 23:55:00,13.6,2.7,30.36,ESE,115,2.0,8.0,61,0.00,,---,0.00,VWS V14.01,2014-01-09 04:55:00,
2014-01-08 23:56:00,13.7,2.8,30.35,SE,137,4.0,8.0,61,0.00,,---,0.00,VWS V14.01,2014-01-09 04:56:00,
2014-01-08 23:57:00,13.8,2.8,30.36,SE,137,1.0,8.0,61,0.00,,---,0.00,VWS V14.01,2014-01-09 04:57:00,
2014-01-08 23:58:00,13.9,3.0,30.36,SSE,160,0.0,8.0,61,0.00,,---,0.00,VWS V14.01,2014-01-09 04:58:00,
2014-01-08 23:59:00,13.8,2.8,30.36,ESE,121,1.0,8.0,61,0.00,,---,0.00,VWS V14.01,2014-01-09 04:59:00,